Wetterdaten: Montag, 16.01.2023
Datum Zeit Temp. Aussen Temp. o. S. Temp +5cm Feuchte Auss Luftdruck Regen Sonnenschein Regendauer Solar Windben Empfang
16.01.2023 00:00 5,8 C 4,4 C 1,1 C 86 % 998,8 hPa 0,0 l/m 0 min 0 min 0 W/m 12,9 km/h (3 Bft) 97,87 %
16.01.2023 00:02 5,8 C 5,0 C 1,1 C 86 % 998,8 hPa 0,0 l/m 0 min 2 min 0 W/m 16,1 km/h (3 Bft) 92,50 %
16.01.2023 00:04 5,8 C 5,0 C 0,6 C 86 % 998,7 hPa 0,2 l/m 0 min 2 min 0 W/m 9,7 km/h (2 Bft) 97,87 %
16.01.2023 00:07 5,8 C 5,0 C 0,6 C 87 % 998,5 hPa 0,0 l/m 0 min 3 min 0 W/m 25,7 km/h (4 Bft) 97,14 %
16.01.2023 00:08 5,8 C 5,0 C 0,6 C 87 % 998,5 hPa 0,0 l/m 0 min 1 min 0 W/m 12,9 km/h (3 Bft) 91,67 %
16.01.2023 00:12 5,7 C 5,0 C 0,6 C 87 % 998,5 hPa 0,0 l/m 0 min 0 min 0 W/m 16,1 km/h (3 Bft) 94,74 %
16.01.2023 00:14 5,7 C 5,0 C 0,6 C 87 % 998,6 hPa 0,0 l/m 0 min 0 min 0 W/m 22,5 km/h (4 Bft) 97,87 %
16.01.2023 00:16 5,7 C 5,0 C 0,6 C 87 % 998,5 hPa 0,0 l/m 0 min 0 min 0 W/m 22,5 km/h (4 Bft) 89,36 %
16.01.2023 00:18 5,7 C 5,0 C 0,6 C 87 % 998,6 hPa 0,0 l/m 0 min 0 min 0 W/m 35,4 km/h (5 Bft) 95,74 %
16.01.2023 00:20 5,7 C 5,0 C 1,1 C 87 % 998,4 hPa 0,0 l/m 0 min 0 min 0 W/m 35,4 km/h (5 Bft) 91,49 %
16.01.2023 00:22 5,8 C 5,0 C 1,1 C 87 % 998,4 hPa 0,0 l/m 0 min 0 min 0 W/m 25,7 km/h (4 Bft) 95,74 %
16.01.2023 00:24 5,8 C 5,6 C 1,1 C 87 % 998,4 hPa 0,0 l/m 0 min 0 min 0 W/m 22,5 km/h (4 Bft) 95,65 %
16.01.2023 00:26 5,8 C 5,6 C 1,1 C 87 % 998,4 hPa 0,0 l/m 0 min 0 min 0 W/m 29,0 km/h (5 Bft) 93,62 %
16.01.2023 00:28 5,8 C 5,6 C 1,1 C 86 % 998,3 hPa 0,0 l/m 0 min 0 min 0 W/m 22,5 km/h (4 Bft) 93,62 %
16.01.2023 00:30 5,9 C 5,6 C 1,1 C 86 % 998,3 hPa 0,0 l/m 0 min 0 min 0 W/m 35,4 km/h (5 Bft) 92,16 %
16.01.2023 00:32 5,9 C 5,6 C 1,1 C 86 % 998,2 hPa 0,0 l/m 0 min 0 min 0 W/m 41,8 km/h (6 Bft) 93,62 %
16.01.2023 00:34 5,9 C 5,6 C 1,1 C 86 % 998,2 hPa 0,0 l/m 0 min 0 min 0 W/m 32,2 km/h (5 Bft) 91,49 %
16.01.2023 00:36 5,9 C 5,6 C 1,1 C 86 % 998,2 hPa 0,0 l/m 0 min 0 min 0 W/m 32,2 km/h (5 Bft) 91,30 %
16.01.2023 00:38 5,9 C 5,6 C 1,1 C 86 % 998,2 hPa 0,0 l/m 0 min 0 min 0 W/m 25,7 km/h (4 Bft) 93,62 %
16.01.2023 00:40 6,0 C 5,6 C 1,7 C 86 % 998,2 hPa 0,0 l/m 0 min 0 min 0 W/m 25,7 km/h (4 Bft) 93,62 %
16.01.2023 00:42 6,0 C 5,6 C 1,7 C 85 % 998,2 hPa 0,0 l/m 0 min 0 min 0 W/m 29,0 km/h (5 Bft) 93,62 %
16.01.2023 00:44 6,0 C 5,6 C 1,7 C 85 % 998,2 hPa 0,0 l/m 0 min 0 min 0 W/m 35,4 km/h (5 Bft) 93,62 %
16.01.2023 00:46 6,0 C 5,6 C 1,7 C 85 % 998,2 hPa 0,0 l/m 0 min 0 min 0 W/m 32,2 km/h (5 Bft) 95,74 %
16.01.2023 00:48 6,0 C 5,6 C 1,7 C 85 % 998,3 hPa 0,0 l/m 0 min 0 min 0 W/m 22,5 km/h (4 Bft) 95,74 %
16.01.2023 00:50 6,0 C 5,6 C 1,7 C 85 % 998,1 hPa 0,0 l/m 0 min 0 min 0 W/m 22,5 km/h (4 Bft) 93,48 %
16.01.2023 00:52 6,0 C 5,6 C 1,7 C 85 % 998,0 hPa 0,0 l/m 0 min 0 min 0 W/m 19,3 km/h (3 Bft) 95,74 %
16.01.2023 00:54 6,0 C 5,6 C 1,7 C 85 % 998,0 hPa 0,0 l/m 0 min 0 min 0 W/m 41,8 km/h (6 Bft) 97,87 %
16.01.2023 00:56 5,9 C 5,0 C 1,7 C 85 % 998,0 hPa 0,0 l/m 0 min 0 min 0 W/m 25,7 km/h (4 Bft) 97,87 %
16.01.2023 00:58 5,9 C 5,0 C 1,7 C 85 % 997,8 hPa 0,0 l/m 0 min 0 min 0 W/m 32,2 km/h (5 Bft) 93,62 %
16.01.2023 01:00 5,9 C 5,0 C 1,7 C 85 % 997,9 hPa 0,0 l/m 0 min 0 min 0 W/m 29,0 km/h (5 Bft) 93,62 %
16.01.2023 01:02 5,9 C 5,0 C 1,7 C 85 % 998,0 hPa 0,0 l/m 0 min 0 min 0 W/m 25,7 km/h (4 Bft) 95,74 %
16.01.2023 01:04 5,9 C 5,0 C 1,7 C 85 % 997,9 hPa 0,0 l/m 0 min 0 min 0 W/m 35,4 km/h (5 Bft) 100,00 %
16.01.2023 01:06 5,8 C 5,0 C 1,7 C 85 % 997,8 hPa 0,0 l/m 0 min 0 min 0 W/m 38,6 km/h (5 Bft) 100,00 %
16.01.2023 01:08 5,8 C 5,0 C 1,7 C 85 % 997,8 hPa 0,0 l/m 0 min 0 min 0 W/m 29,0 km/h (5 Bft) 100,00 %
16.01.2023 01:10 5,8 C 5,0 C 1,7 C 85 % 997,7 hPa 0,0 l/m 0 min 0 min 0 W/m 35,4 km/h (5 Bft) 100,00 %
16.01.2023 01:12 5,8 C 5,0 C 1,7 C 85 % 997,7 hPa 0,0 l/m 0 min 0 min 0 W/m 29,0 km/h (5 Bft) 97,87 %
16.01.2023 01:14 5,8 C 5,0 C 1,7 C 85 % 997,7 hPa 0,0 l/m 0 min 0 min 0 W/m 22,5 km/h (4 Bft) 97,87 %
16.01.2023 01:16 5,7 C 5,0 C 1,7 C 85 % 997,6 hPa 0,0 l/m 0 min 0 min 0 W/m 19,3 km/h (3 Bft) 45,95 %
16.01.2023 01:18 5,7 C 5,0 C 1,7 C 85 % 997,7 hPa 0,0 l/m 0 min 0 min 0 W/m 25,7 km/h (4 Bft) 100,00 %
16.01.2023 01:20 5,7 C 4,4 C 1,7 C 85 % 997,6 hPa 0,0 l/m 0 min 0 min 0 W/m 22,5 km/h (4 Bft) 100,00 %
16.01.2023 01:22 5,6 C 4,4 C 1,1 C 85 % 997,6 hPa 0,0 l/m 0 min 0 min 0 W/m 16,1 km/h (3 Bft) 100,00 %
16.01.2023 01:24 5,6 C 4,4 C 1,1 C 85 % 997,6 hPa 0,0 l/m 0 min 0 min 0 W/m 25,7 km/h (4 Bft) 100,00 %
16.01.2023 01:26 5,5 C 4,4 C 1,1 C 86 % 997,5 hPa 0,0 l/m 0 min 0 min 0 W/m 16,1 km/h (3 Bft) 100,00 %
16.01.2023 01:28 5,5 C 4,4 C 1,1 C 86 % 997,5 hPa 0,0 l/m 0 min 0 min 0 W/m 25,7 km/h (4 Bft) 100,00 %
16.01.2023 01:30 5,4 C 4,4 C 1,1 C 86 % 997,4 hPa 0,0 l/m 0 min 0 min 0 W/m 12,9 km/h (3 Bft) 100,00 %
16.01.2023 01:32 5,4 C 4,4 C 1,1 C 86 % 997,5 hPa 0,0 l/m 0 min 0 min 0 W/m 22,5 km/h (4 Bft) 100,00 %
16.01.2023 01:34 5,4 C 4,4 C 1,1 C 86 % 997,4 hPa 0,0 l/m 0 min 0 min 0 W/m 22,5 km/h (4 Bft) 100,00 %
16.01.2023 01:36 5,3 C 4,4 C 1,1 C 86 % 997,4 hPa 0,0 l/m 0 min 0 min 0 W/m 22,5 km/h (4 Bft) 100,00 %
16.01.2023 01:38 5,3 C 4,4 C 1,1 C 87 % 997,4 hPa 0,0 l/m 0 min 0 min 0 W/m 25,7 km/h (4 Bft) 100,00 %
16.01.2023 01:40 5,3 C 4,4 C 1,1 C 87 % 997,4 hPa 0,0 l/m 0 min 0 min 0 W/m 16,1 km/h (3 Bft) 100,00 %
16.01.2023 01:42 5,3 C 4,4 C 1,1 C 87 % 997,3 hPa 0,0 l/m 0 min 0 min 0 W/m 22,5 km/h (4 Bft) 100,00 %
16.01.2023 01:44 5,3 C 4,4 C 1,1 C 87 % 997,3 hPa 0,0 l/m 0 min 0 min 0 W/m 29,0 km/h (5 Bft) 100,00 %
16.01.2023 01:46 5,2 C 4,4 C 1,1 C 87 % 997,2 hPa 0,0 l/m 0 min 0 min 0 W/m 16,1 km/h (3 Bft) 100,00 %
16.01.2023 01:48 5,2 C 4,4 C 1,1 C 87 % 997,2 hPa 0,0 l/m 0 min 0 min 0 W/m 25,7 km/h (4 Bft) 100,00 %
16.01.2023 01:50 5,2 C 4,4 C 1,1 C 87 % 997,2 hPa 0,0 l/m 0 min 0 min 0 W/m 16,1 km/h (3 Bft) 100,00 %
16.01.2023 01:52 5,1 C 3,9 C 1,1 C 87 % 997,2 hPa 0,0 l/m 0 min 0 min 0 W/m 12,9 km/h (3 Bft) 100,00 %
16.01.2023 01:54 5,1 C 4,4 C 1,1 C 87 % 997,2 hPa 0,0 l/m 0 min 0 min 0 W/m 25,7 km/h (4 Bft) 100,00 %
16.01.2023 01:56 5,1 C 4,4 C 1,1 C 87 % 997,1 hPa 0,0 l/m 0 min 0 min 0 W/m 22,5 km/h (4 Bft) 97,83 %
16.01.2023 01:58 5,1 C 3,9 C 1,1 C 87 % 997,1 hPa 0,0 l/m 0 min 0 min 0 W/m 19,3 km/h (3 Bft) 97,87 %
16.01.2023 02:00 5,0 C 3,9 C 1,1 C 87 % 997,0 hPa 0,0 l/m 0 min 0 min 0 W/m 25,7 km/h (4 Bft) 97,87 %
16.01.2023 02:02 5,0 C 3,9 C 1,1 C 87 % 997,0 hPa 0,0 l/m 0 min 0 min 0 W/m 29,0 km/h (5 Bft) 100,00 %
16.01.2023 02:04 4,9 C 3,9 C 1,1 C 88 % 997,0 hPa 0,0 l/m 0 min 0 min 0 W/m 12,9 km/h (3 Bft) 100,00 %
16.01.2023 02:06 4,9 C 3,9 C 1,1 C 88 % 996,9 hPa 0,0 l/m 0 min 0 min 0 W/m 22,5 km/h (4 Bft) 97,87 %
16.01.2023 02:08 4,9 C 3,9 C 1,1 C 88 % 996,8 hPa 0,0 l/m 0 min 0 min 0 W/m 16,1 km/h (3 Bft) 97,87 %
16.01.2023 02:10 4,9 C 3,9 C 1,1 C 88 % 996,8 hPa 0,0 l/m 0 min 0 min 0 W/m 25,7 km/h (4 Bft) 95,65 %
16.01.2023 02:12 4,9 C 3,9 C 1,1 C 88 % 996,7 hPa 0,0 l/m 0 min 0 min 0 W/m 16,1 km/h (3 Bft) 97,87 %
16.01.2023 02:14 4,9 C 3,9 C 1,1 C 88 % 996,7 hPa 0,0 l/m 0 min 0 min 0 W/m 29,0 km/h (5 Bft) 95,74 %
16.01.2023 02:16 4,9 C 3,9 C 1,1 C 88 % 996,6 hPa 0,0 l/m 0 min 0 min 0 W/m 22,5 km/h (4 Bft) 97,87 %
16.01.2023 02:18 4,9 C 3,9 C 1,1 C 88 % 996,6 hPa 0,0 l/m 0 min 0 min 0 W/m 22,5 km/h (4 Bft) 95,74 %
16.01.2023 02:20 4,9 C 3,9 C 1,1 C 88 % 996,5 hPa 0,0 l/m 0 min 0 min 0 W/m 19,3 km/h (3 Bft) 40,00 %
16.01.2023 02:22 4,8 C 3,9 C 0,6 C 88 % 996,5 hPa 0,0 l/m 0 min 0 min 0 W/m 12,9 km/h (3 Bft) 97,87 %
16.01.2023 02:24 4,8 C 3,9 C 0,6 C 88 % 996,4 hPa 0,0 l/m 0 min 0 min 0 W/m 32,2 km/h (5 Bft) 97,83 %
16.01.2023 02:26 4,8 C 3,9 C 0,6 C 88 % 996,5 hPa 0,0 l/m 0 min 0 min 0 W/m 22,5 km/h (4 Bft) 97,87 %
16.01.2023 02:28 4,8 C 3,9 C 0,6 C 88 % 996,4 hPa 0,0 l/m 0 min 0 min 0 W/m 16,1 km/h (3 Bft) 97,87 %
16.01.2023 02:30 4,8 C 3,9 C 0,6 C 88 % 996,4 hPa 0,0 l/m 0 min 0 min 0 W/m 19,3 km/h (3 Bft) 93,62 %
16.01.2023 02:32 4,8 C 3,9 C 0,6 C 88 % 996,3 hPa 0,0 l/m 0 min 0 min 0 W/m 16,1 km/h (3 Bft) 97,87 %
16.01.2023 02:34 4,8 C 3,9 C 0,6 C 88 % 996,3 hPa 0,0 l/m 0 min 0 min 0 W/m 19,3 km/h (3 Bft) 97,87 %
16.01.2023 02:36 4,8 C 3,9 C 0,6 C 88 % 996,3 hPa 0,0 l/m 0 min 0 min 0 W/m 19,3 km/h (3 Bft) 93,62 %
16.01.2023 02:38 4,8 C 3,9 C 1,1 C 88 % 996,3 hPa 0,0 l/m 0 min 0 min 0 W/m 19,3 km/h (3 Bft) 97,56 %
16.01.2023 02:40 4,8 C 3,9 C 1,1 C 88 % 996,3 hPa 0,0 l/m 0 min 0 min 0 W/m 19,3 km/h (3 Bft) 100,00 %
16.01.2023 02:42 4,8 C 3,9 C 1,1 C 88 % 996,3 hPa 0,0 l/m 0 min 0 min 0 W/m 12,9 km/h (3 Bft) 100,00 %
16.01.2023 02:44 4,8 C 3,9 C 1,1 C 88 % 996,2 hPa 0,0 l/m 0 min 0 min 0 W/m 12,9 km/h (3 Bft) 97,87 %
16.01.2023 02:46 4,8 C 3,9 C 0,6 C 88 % 996,2 hPa 0,0 l/m 0 min 0 min 0 W/m 9,7 km/h (2 Bft) 97,87 %
16.01.2023 02:48 4,7 C 3,9 C 0,6 C 88 % 996,1 hPa 0,0 l/m 0 min 0 min 0 W/m 9,7 km/h (2 Bft) 97,87 %
16.01.2023 02:50 4,7 C 3,9 C 0,6 C 88 % 996,1 hPa 0,0 l/m 0 min 0 min 0 W/m 12,9 km/h (3 Bft) 97,83 %
16.01.2023 02:52 4,7 C 3,9 C 0,6 C 88 % 996,1 hPa 0,0 l/m 0 min 0 min 0 W/m 12,9 km/h (3 Bft) 97,87 %
16.01.2023 02:54 4,7 C 3,9 C 0,6 C 88 % 996,1 hPa 0,0 l/m 0 min 0 min 0 W/m 9,7 km/h (2 Bft) 97,87 %
16.01.2023 02:56 4,7 C 3,9 C 0,6 C 89 % 996,0 hPa 0,0 l/m 0 min 0 min 0 W/m 6,4 km/h (2 Bft) 97,87 %
16.01.2023 02:58 4,7 C 3,9 C 0,6 C 89 % 996,0 hPa 0,0 l/m 0 min 0 min 0 W/m 6,4 km/h (2 Bft) 97,87 %
16.01.2023 03:00 4,7 C 3,9 C 0,6 C 89 % 995,9 hPa 0,0 l/m 0 min 0 min 0 W/m 6,4 km/h (2 Bft) 95,74 %
16.01.2023 03:02 4,7 C 3,9 C 0,6 C 89 % 995,8 hPa 0,0 l/m 0 min 0 min 0 W/m 6,4 km/h (2 Bft) 93,62 %
16.01.2023 03:04 4,7 C 3,9 C 0,6 C 89 % 995,8 hPa 0,0 l/m 0 min 0 min 0 W/m 6,4 km/h (2 Bft) 95,65 %
16.01.2023 03:06 4,7 C 3,9 C 0,6 C 89 % 995,7 hPa 0,0 l/m 0 min 0 min 0 W/m 6,4 km/h (2 Bft) 93,22 %
16.01.2023 03:08 4,7 C 3,9 C 0,6 C 89 % 995,7 hPa 0,0 l/m 0 min 0 min 0 W/m 6,4 km/h (2 Bft) 94,29 %
16.01.2023 03:10 4,7 C 3,9 C 1,1 C 89 % 995,7 hPa 0,0 l/m 0 min 0 min 0 W/m 12,9 km/h (3 Bft) 97,87 %
16.01.2023 03:12 4,7 C 3,9 C 1,1 C 89 % 995,7 hPa 0,0 l/m 0 min 0 min 0 W/m 6,4 km/h (2 Bft) 95,74 %
16.01.2023 03:14 4,7 C 3,9 C 1,1 C 89 % 995,6 hPa 0,0 l/m 0 min 0 min 0 W/m 6,4 km/h (2 Bft) 91,49 %
16.01.2023 03:16 4,7 C 3,9 C 1,1 C 89 % 995,6 hPa 0,0 l/m 0 min 0 min 0 W/m 12,9 km/h (3 Bft) 95,65 %
16.01.2023 03:18 4,7 C 3,9 C 1,1 C 89 % 995,6 hPa 0,0 l/m 0 min 0 min 0 W/m 6,4 km/h (2 Bft) 93,62 %
16.01.2023 03:20 4,7 C 3,9 C 1,1 C 89 % 995,5 hPa 0,0 l/m 0 min 0 min 0 W/m 9,7 km/h (2 Bft) 87,23 %
16.01.2023 03:22 4,7 C 3,9 C 1,1 C 89 % 995,4 hPa 0,0 l/m 0 min 0 min 0 W/m 9,7 km/h (2 Bft) 61,36 %
16.01.2023 03:24 4,7 C 3,9 C 1,1 C 89 % 995,4 hPa 0,0 l/m 0 min 0 min 0 W/m 12,9 km/h (3 Bft) 93,62 %
16.01.2023 03:26 4,7 C 3,9 C 1,1 C 89 % 995,3 hPa 0,0 l/m 0 min 0 min 0 W/m 6,4 km/h (2 Bft) 95,74 %
16.01.2023 03:28 4,7 C 3,9 C 1,1 C 89 % 995,3 hPa 0,0 l/m 0 min 0 min 0 W/m 9,7 km/h (2 Bft) 95,74 %
16.01.2023 03:30 4,7 C 3,9 C 0,6 C 89 % 995,3 hPa 0,0 l/m 0 min 0 min 0 W/m 16,1 km/h (3 Bft) 97,83 %
16.01.2023 03:32 4,7 C 3,9 C 0,6 C 89 % 995,3 hPa 0,0 l/m 0 min 0 min 0 W/m 12,9 km/h (3 Bft) 95,74 %
16.01.2023 03:34 4,6 C 3,9 C 0,6 C 89 % 995,2 hPa 0,0 l/m 0 min 0 min 0 W/m 12,9 km/h (3 Bft) 95,74 %
16.01.2023 03:36 4,6 C 3,9 C 0,6 C 89 % 995,1 hPa 0,0 l/m 0 min 0 min 0 W/m 6,4 km/h (2 Bft) 97,87 %
16.01.2023 03:38 4,6 C 3,9 C 0,6 C 89 % 995,1 hPa 0,0 l/m 0 min 0 min 0 W/m 9,7 km/h (2 Bft) 95,74 %
16.01.2023 03:40 4,6 C 3,9 C 0,6 C 89 % 995,0 hPa 0,0 l/m 0 min 0 min 0 W/m 9,7 km/h (2 Bft) 97,87 %
16.01.2023 03:42 4,6 C 3,9 C 0,6 C 89 % 995,0 hPa 0,0 l/m 0 min 0 min 0 W/m 6,4 km/h (2 Bft) 97,87 %
16.01.2023 03:44 4,6 C 3,9 C 0,6 C 89 % 995,0 hPa 0,0 l/m 0 min 0 min 0 W/m 6,4 km/h (2 Bft) 97,83 %
16.01.2023 03:46 4,6 C 3,9 C 0,6 C 89 % 995,0 hPa 0,0 l/m 0 min 0 min 0 W/m 9,7 km/h (2 Bft) 97,92 %
16.01.2023 03:48 4,6 C 3,9 C 0,6 C 89 % 994,9 hPa 0,0 l/m 0 min 0 min 0 W/m 6,4 km/h (2 Bft) 93,62 %
16.01.2023 03:50 4,6 C 3,9 C 0,6 C 89 % 994,9 hPa 0,0 l/m 0 min 0 min 0 W/m 16,1 km/h (3 Bft) 97,87 %
16.01.2023 03:52 4,5 C 3,3 C 0,6 C 89 % 994,8 hPa 0,0 l/m 0 min 0 min 0 W/m 12,9 km/h (3 Bft) 93,62 %
16.01.2023 03:54 4,5 C 3,3 C 0,6 C 89 % 994,9 hPa 0,0 l/m 0 min 0 min 0 W/m 12,9 km/h (3 Bft) 97,87 %
16.01.2023 03:56 4,5 C 3,3 C 0,6 C 89 % 994,8 hPa 0,0 l/m 0 min 0 min 0 W/m 9,7 km/h (2 Bft) 100,00 %
16.01.2023 03:58 4,4 C 3,3 C 0,6 C 89 % 994,7 hPa 0,0 l/m 0 min 0 min 0 W/m 12,9 km/h (3 Bft) 97,87 %
16.01.2023 04:00 4,4 C 3,9 C 0,6 C 89 % 994,6 hPa 0,0 l/m 0 min 0 min 0 W/m 19,3 km/h (3 Bft) 95,74 %
16.01.2023 04:02 4,4 C 3,9 C 0,6 C 89 % 994,6 hPa 0,0 l/m 0 min 0 min 0 W/m 19,3 km/h (3 Bft) 92,31 %
16.01.2023 04:04 4,4 C 3,9 C 0,6 C 89 % 994,5 hPa 0,0 l/m 0 min 0 min 0 W/m 12,9 km/h (3 Bft) 97,87 %
16.01.2023 04:06 4,4 C 3,9 C 0,6 C 89 % 994,3 hPa 0,0 l/m 0 min 0 min 0 W/m 12,9 km/h (3 Bft) 91,38 %
16.01.2023 04:08 4,4 C 3,3 C 0,6 C 89 % 994,2 hPa 0,0 l/m 0 min 0 min 0 W/m 9,7 km/h (2 Bft) 97,22 %
16.01.2023 04:10 4,4 C 3,3 C 0,6 C 89 % 994,2 hPa 0,0 l/m 0 min 0 min 0 W/m 9,7 km/h (2 Bft) 97,83 %
16.01.2023 04:12 4,4 C 3,9 C 0,6 C 89 % 994,1 hPa 0,0 l/m 0 min 0 min 0 W/m 12,9 km/h (3 Bft) 95,74 %
16.01.2023 04:14 4,4 C 3,9 C 0,6 C 89 % 994,0 hPa 0,0 l/m 0 min 0 min 0 W/m 12,9 km/h (3 Bft) 95,74 %
16.01.2023 04:16 4,4 C 3,9 C 0,6 C 89 % 994,0 hPa 0,0 l/m 0 min 0 min 0 W/m 16,1 km/h (3 Bft) 95,74 %
16.01.2023 04:18 4,4 C 3,9 C 0,6 C 89 % 993,9 hPa 0,0 l/m 0 min 0 min 0 W/m 12,9 km/h (3 Bft) 97,87 %
16.01.2023 04:20 4,3 C 3,3 C 0,6 C 89 % 993,9 hPa 0,0 l/m 0 min 0 min 0 W/m 6,4 km/h (2 Bft) 97,87 %
16.01.2023 04:22 4,3 C 3,3 C 0,6 C 89 % 993,9 hPa 0,0 l/m 0 min 0 min 0 W/m 6,4 km/h (2 Bft) 54,55 %
16.01.2023 04:24 4,3 C 3,3 C 0,6 C 89 % 993,8 hPa 0,0 l/m 0 min 0 min 0 W/m 9,7 km/h (2 Bft) 95,65 %
16.01.2023 04:26 4,3 C 3,3 C 0,6 C 89 % 993,7 hPa 0,0 l/m 0 min 0 min 0 W/m 12,9 km/h (3 Bft) 97,87 %
16.01.2023 04:28 4,3 C 3,3 C 0,6 C 89 % 993,7 hPa 0,0 l/m 0 min 0 min 0 W/m 6,4 km/h (2 Bft) 97,87 %
16.01.2023 04:30 4,3 C 3,3 C 0,6 C 89 % 993,7 hPa 0,0 l/m 0 min 0 min 0 W/m 12,9 km/h (3 Bft) 100,00 %
16.01.2023 04:32 4,3 C 3,3 C 0,6 C 89 % 993,6 hPa 0,0 l/m 0 min 0 min 0 W/m 6,4 km/h (2 Bft) 100,00 %
16.01.2023 04:34 4,3 C 3,3 C 0,6 C 89 % 993,6 hPa 0,0 l/m 0 min 0 min 0 W/m 6,4 km/h (2 Bft) 97,87 %
16.01.2023 04:36 4,3 C 3,3 C 0,6 C 89 % 993,5 hPa 0,0 l/m 0 min 0 min 0 W/m 9,7 km/h (2 Bft) 100,00 %
16.01.2023 04:38 4,3 C 3,3 C 0,6 C 89 % 993,5 hPa 0,0 l/m 0 min 0 min 0 W/m 12,9 km/h (3 Bft) 100,00 %
16.01.2023 04:40 4,3 C 3,3 C 0,6 C 89 % 993,4 hPa 0,0 l/m 0 min 0 min 0 W/m 12,9 km/h (3 Bft) 100,00 %
16.01.2023 04:42 4,3 C 3,3 C 0,6 C 89 % 993,4 hPa 0,0 l/m 0 min 0 min 0 W/m 12,9 km/h (3 Bft) 100,00 %
16.01.2023 04:44 4,3 C 3,3 C 0,6 C 89 % 993,4 hPa 0,0 l/m 0 min 0 min 0 W/m 6,4 km/h (2 Bft) 100,00 %
16.01.2023 04:46 4,2 C 3,3 C 0,6 C 90 % 993,3 hPa 0,0 l/m 0 min 0 min 0 W/m 6,4 km/h (2 Bft) 97,87 %
16.01.2023 04:48 4,2 C 3,3 C 0,6 C 90 % 993,3 hPa 0,0 l/m 0 min 0 min 0 W/m 6,4 km/h (2 Bft) 100,00 %
16.01.2023 04:50 4,2 C 3,3 C 0,6 C 90 % 993,3 hPa 0,0 l/m 0 min 0 min 0 W/m 16,1 km/h (3 Bft) 100,00 %
16.01.2023 04:52 4,2 C 3,3 C 0,6 C 90 % 993,2 hPa 0,0 l/m 0 min 0 min 0 W/m 16,1 km/h (3 Bft) 100,00 %
16.01.2023 04:54 4,2 C 3,3 C 0,0 C 90 % 993,3 hPa 0,0 l/m 0 min 0 min 0 W/m 16,1 km/h (3 Bft) 97,87 %
16.01.2023 04:56 4,1 C 3,3 C 0,0 C 90 % 993,2 hPa 0,0 l/m 0 min 0 min 0 W/m 16,1 km/h (3 Bft) 97,87 %
16.01.2023 04:58 4,1 C 3,3 C 0,0 C 90 % 993,1 hPa 0,0 l/m 0 min 0 min 0 W/m 16,1 km/h (3 Bft) 100,00 %
16.01.2023 05:00 4,1 C 3,3 C 0,0 C 90 % 993,0 hPa 0,0 l/m 0 min 0 min 0 W/m 16,1 km/h (3 Bft) 97,87 %
16.01.2023 05:02 4,1 C 3,3 C 0,0 C 90 % 992,9 hPa 0,0 l/m 0 min 0 min 0 W/m 12,9 km/h (3 Bft) 97,87 %
16.01.2023 05:04 4,1 C 3,3 C 0,0 C 90 % 992,8 hPa 0,0 l/m 0 min 0 min 0 W/m 12,9 km/h (3 Bft) 95,65 %
16.01.2023 05:06 4,1 C 3,3 C 0,0 C 90 % 992,7 hPa 0,0 l/m 0 min 0 min 0 W/m 16,1 km/h (3 Bft) 98,31 %
16.01.2023 05:08 4,0 C 3,3 C 0,0 C 90 % 992,8 hPa 0,0 l/m 0 min 0 min 0 W/m 16,1 km/h (3 Bft) 100,00 %
16.01.2023 05:10 4,0 C 3,3 C 0,0 C 90 % 992,7 hPa 0,0 l/m 0 min 0 min 0 W/m 12,9 km/h (3 Bft) 100,00 %
16.01.2023 05:12 4,0 C 3,3 C 0,0 C 90 % 992,6 hPa 0,0 l/m 0 min 0 min 0 W/m 16,1 km/h (3 Bft) 97,87 %
16.01.2023 05:14 3,9 C 3,3 C 0,0 C 90 % 992,5 hPa 0,0 l/m 0 min 0 min 0 W/m 12,9 km/h (3 Bft) 97,87 %
16.01.2023 05:16 3,9 C 3,3 C 0,0 C 90 % 992,4 hPa 0,0 l/m 0 min 0 min 0 W/m 6,4 km/h (2 Bft) 97,87 %
16.01.2023 05:18 3,9 C 2,8 C 0,0 C 90 % 992,3 hPa 0,0 l/m 0 min 0 min 0 W/m 16,1 km/h (3 Bft) 97,83 %
16.01.2023 05:20 3,9 C 2,8 C 0,0 C 90 % 992,2 hPa 0,0 l/m 0 min 0 min 0 W/m 6,4 km/h (2 Bft) 42,86 %
16.01.2023 05:22 3,9 C 2,8 C 0,0 C 90 % 992,1 hPa 0,0 l/m 0 min 0 min 0 W/m 12,9 km/h (3 Bft) 97,87 %
16.01.2023 05:24 3,8 C 2,8 C 0,0 C 90 % 992,1 hPa 0,0 l/m 0 min 0 min 0 W/m 12,9 km/h (3 Bft) 97,87 %
16.01.2023 05:26 3,8 C 2,8 C 0,0 C 90 % 992,1 hPa 0,0 l/m 0 min 0 min 0 W/m 6,4 km/h (2 Bft) 97,87 %
16.01.2023 05:28 3,8 C 2,8 C 0,0 C 90 % 991,9 hPa 0,0 l/m 0 min 0 min 0 W/m 6,4 km/h (2 Bft) 95,74 %
16.01.2023 05:30 3,8 C 2,8 C 0,0 C 90 % 991,9 hPa 0,0 l/m 0 min 0 min 0 W/m 12,9 km/h (3 Bft) 95,74 %
16.01.2023 05:32 3,8 C 2,8 C 0,0 C 91 % 991,8 hPa 0,0 l/m 0 min 0 min 0 W/m 12,9 km/h (3 Bft) 97,83 %
16.01.2023 05:34 3,8 C 2,8 C 0,0 C 91 % 991,7 hPa 0,0 l/m 0 min 0 min 0 W/m 12,9 km/h (3 Bft) 97,87 %
16.01.2023 05:36 3,8 C 3,3 C 0,0 C 91 % 991,6 hPa 0,0 l/m 0 min 0 min 0 W/m 12,9 km/h (3 Bft) 97,87 %
16.01.2023 05:38 3,8 C 3,3 C 0,0 C 91 % 991,6 hPa 0,0 l/m 0 min 0 min 0 W/m 9,7 km/h (2 Bft) 97,87 %
16.01.2023 05:40 3,7 C 3,3 C 0,0 C 91 % 991,6 hPa 0,0 l/m 0 min 0 min 0 W/m 16,1 km/h (3 Bft) 97,87 %
16.01.2023 05:42 3,8 C 3,3 C 0,0 C 91 % 991,6 hPa 0,0 l/m 0 min 0 min 0 W/m 16,1 km/h (3 Bft) 95,74 %
16.01.2023 05:44 3,8 C 3,3 C 0,0 C 91 % 991,5 hPa 0,0 l/m 0 min 0 min 0 W/m 16,1 km/h (3 Bft) 95,74 %
16.01.2023 05:46 3,8 C 3,3 C 0,0 C 91 % 991,4 hPa 0,0 l/m 0 min 0 min 0 W/m 16,1 km/h (3 Bft) 97,83 %
16.01.2023 05:48 3,8 C 3,3 C 0,6 C 91 % 991,3 hPa 0,0 l/m 0 min 0 min 0 W/m 19,3 km/h (3 Bft) 95,74 %
16.01.2023 05:50 3,8 C 3,3 C 0,0 C 91 % 991,3 hPa 0,0 l/m 0 min 0 min 0 W/m 16,1 km/h (3 Bft) 93,62 %
16.01.2023 05:52 3,8 C 3,3 C 0,0 C 91 % 991,2 hPa 0,0 l/m 0 min 0 min 0 W/m 19,3 km/h (3 Bft) 95,74 %
16.01.2023 05:54 3,8 C 3,3 C 0,6 C 91 % 991,1 hPa 0,0 l/m 0 min 0 min 0 W/m 12,9 km/h (3 Bft) 97,87 %
16.01.2023 05:56 3,8 C 3,3 C 0,6 C 91 % 991,0 hPa 0,0 l/m 0 min 0 min 0 W/m 16,1 km/h (3 Bft) 97,87 %
16.01.2023 05:58 3,8 C 3,3 C 0,6 C 91 % 991,0 hPa 0,0 l/m 0 min 0 min 0 W/m 12,9 km/h (3 Bft) 97,83 %
16.01.2023 06:00 3,9 C 3,3 C 0,6 C 91 % 990,9 hPa 0,0 l/m 0 min 0 min 0 W/m 22,5 km/h (4 Bft) 97,87 %
16.01.2023 06:02 3,9 C 3,3 C 0,6 C 91 % 990,9 hPa 0,0 l/m 0 min 0 min 0 W/m 12,9 km/h (3 Bft) 95,74 %
16.01.2023 06:04 3,9 C 3,3 C 0,6 C 91 % 990,7 hPa 0,0 l/m 0 min 0 min 0 W/m 22,5 km/h (4 Bft) 97,87 %
16.01.2023 06:07 3,9 C 3,3 C 0,6 C 91 % 990,6 hPa 0,0 l/m 0 min 0 min 0 W/m 16,1 km/h (3 Bft) 95,77 %
16.01.2023 06:08 3,9 C 3,3 C 0,6 C 91 % 990,6 hPa 0,0 l/m 0 min 0 min 0 W/m 12,9 km/h (3 Bft) 91,67 %
16.01.2023 06:10 3,9 C 3,3 C 0,6 C 91 % 990,5 hPa 0,0 l/m 0 min 0 min 0 W/m 19,3 km/h (3 Bft) 93,62 %
16.01.2023 06:12 4,0 C 3,3 C 0,6 C 91 % 990,5 hPa 0,0 l/m 0 min 0 min 0 W/m 16,1 km/h (3 Bft) 95,65 %
16.01.2023 06:14 4,1 C 3,9 C 0,6 C 91 % 990,4 hPa 0,0 l/m 0 min 0 min 0 W/m 16,1 km/h (3 Bft) 95,74 %
16.01.2023 06:16 4,1 C 3,9 C 0,6 C 91 % 990,5 hPa 0,0 l/m 0 min 0 min 0 W/m 22,5 km/h (4 Bft) 95,74 %
16.01.2023 06:18 4,1 C 3,9 C 0,6 C 91 % 990,4 hPa 0,0 l/m 0 min 0 min 0 W/m 22,5 km/h (4 Bft) 95,74 %
16.01.2023 06:20 4,2 C 3,9 C 0,6 C 91 % 990,3 hPa 0,0 l/m 0 min 0 min 0 W/m 19,3 km/h (3 Bft) 97,87 %
16.01.2023 06:22 4,2 C 3,9 C 0,6 C 91 % 990,2 hPa 0,0 l/m 0 min 0 min 0 W/m 22,5 km/h (4 Bft) 97,87 %
16.01.2023 06:24 4,2 C 3,9 C 0,6 C 91 % 990,2 hPa 0,0 l/m 0 min 0 min 0 W/m 16,1 km/h (3 Bft) 95,74 %
16.01.2023 06:26 4,3 C 3,9 C 0,6 C 91 % 990,1 hPa 0,0 l/m 0 min 0 min 0 W/m 16,1 km/h (3 Bft) 93,48 %
16.01.2023 06:28 4,3 C 3,9 C 1,1 C 91 % 990,1 hPa 0,0 l/m 0 min 0 min 0 W/m 16,1 km/h (3 Bft) 97,87 %
16.01.2023 06:30 4,3 C 3,9 C 1,1 C 91 % 990,0 hPa 0,0 l/m 0 min 0 min 0 W/m 19,3 km/h (3 Bft) 97,87 %
16.01.2023 06:32 4,4 C 3,9 C 1,1 C 91 % 989,9 hPa 0,0 l/m 0 min 0 min 0 W/m 22,5 km/h (4 Bft) 95,74 %
16.01.2023 06:34 4,4 C 3,9 C 1,1 C 91 % 989,8 hPa 0,0 l/m 0 min 0 min 0 W/m 12,9 km/h (3 Bft) 89,36 %
16.01.2023 06:36 4,4 C 3,9 C 1,1 C 91 % 989,8 hPa 0,0 l/m 0 min 0 min 0 W/m 19,3 km/h (3 Bft) 93,62 %
16.01.2023 06:38 4,5 C 3,9 C 1,1 C 91 % 989,7 hPa 0,0 l/m 0 min 0 min 0 W/m 16,1 km/h (3 Bft) 95,74 %
16.01.2023 06:40 4,6 C 3,9 C 1,1 C 91 % 989,7 hPa 0,0 l/m 0 min 0 min 0 W/m 19,3 km/h (3 Bft) 95,65 %
16.01.2023 06:42 4,6 C 4,4 C 1,1 C 91 % 989,7 hPa 0,0 l/m 0 min 0 min 0 W/m 19,3 km/h (3 Bft) 95,74 %
16.01.2023 06:44 4,6 C 4,4 C 1,1 C 91 % 989,6 hPa 0,0 l/m 0 min 0 min 0 W/m 19,3 km/h (3 Bft) 97,87 %
16.01.2023 06:46 4,6 C 4,4 C 1,1 C 91 % 989,5 hPa 0,0 l/m 0 min 0 min 0 W/m 22,5 km/h (4 Bft) 97,87 %
16.01.2023 06:48 4,6 C 4,4 C 1,1 C 91 % 989,5 hPa 0,0 l/m 0 min 0 min 0 W/m 16,1 km/h (3 Bft) 97,87 %
16.01.2023 06:50 4,7 C 4,4 C 1,1 C 91 % 989,5 hPa 0,0 l/m 0 min 0 min 0 W/m 19,3 km/h (3 Bft) 95,74 %
16.01.2023 06:52 4,7 C 4,4 C 1,1 C 91 % 989,5 hPa 0,0 l/m 0 min 0 min 0 W/m 22,5 km/h (4 Bft) 97,87 %
16.01.2023 06:54 4,7 C 4,4 C 1,1 C 91 % 989,4 hPa 0,0 l/m 0 min 0 min 0 W/m 19,3 km/h (3 Bft) 97,83 %
16.01.2023 06:56 4,7 C 4,4 C 1,1 C 91 % 989,3 hPa 0,0 l/m 0 min 0 min 0 W/m 12,9 km/h (3 Bft) 95,74 %
16.01.2023 06:58 4,7 C 4,4 C 1,1 C 90 % 989,2 hPa 0,0 l/m 0 min 0 min 0 W/m 22,5 km/h (4 Bft) 95,74 %
16.01.2023 07:00 4,8 C 4,4 C 1,1 C 90 % 989,2 hPa 0,0 l/m 0 min 0 min 0 W/m 19,3 km/h (3 Bft) 100,00 %
16.01.2023 07:02 4,8 C 4,4 C 1,1 C 90 % 989,1 hPa 0,0 l/m 0 min 0 min 0 W/m 16,1 km/h (3 Bft) 100,00 %
16.01.2023 07:04 4,8 C 4,4 C 1,1 C 90 % 989,0 hPa 0,0 l/m 0 min 0 min 0 W/m 16,1 km/h (3 Bft) 100,00 %
16.01.2023 07:06 4,8 C 4,4 C 1,1 C 90 % 988,9 hPa 0,0 l/m 0 min 0 min 0 W/m 19,3 km/h (3 Bft) 96,55 %
16.01.2023 07:08 4,8 C 4,4 C 1,1 C 90 % 988,9 hPa 0,0 l/m 0 min 0 min 0 W/m 22,5 km/h (4 Bft) 100,00 %
16.01.2023 07:10 4,8 C 4,4 C 1,1 C 89 % 988,8 hPa 0,0 l/m 0 min 0 min 0 W/m 29,0 km/h (5 Bft) 100,00 %
16.01.2023 07:12 4,9 C 4,4 C 1,1 C 89 % 988,9 hPa 0,0 l/m 0 min 0 min 0 W/m 19,3 km/h (3 Bft) 97,87 %
16.01.2023 07:14 4,9 C 4,4 C 1,1 C 89 % 988,8 hPa 0,0 l/m 0 min 0 min 0 W/m 19,3 km/h (3 Bft) 100,00 %
16.01.2023 07:16 4,9 C 4,4 C 1,1 C 89 % 988,7 hPa 0,0 l/m 0 min 0 min 0 W/m 19,3 km/h (3 Bft) 95,74 %
16.01.2023 07:18 4,9 C 4,4 C 1,1 C 89 % 988,7 hPa 0,0 l/m 0 min 0 min 0 W/m 19,3 km/h (3 Bft) 97,87 %
16.01.2023 07:20 4,9 C 4,4 C 1,1 C 89 % 988,7 hPa 0,0 l/m 0 min 0 min 0 W/m 22,5 km/h (4 Bft) 100,00 %
16.01.2023 07:22 5,0 C 4,4 C 1,7 C 89 % 988,6 hPa 0,0 l/m 0 min 0 min 0 W/m 19,3 km/h (3 Bft) 100,00 %
16.01.2023 07:24 5,0 C 4,4 C 1,7 C 89 % 988,4 hPa 0,0 l/m 0 min 0 min 0 W/m 22,5 km/h (4 Bft) 95,65 %
16.01.2023 07:26 5,1 C 4,4 C 1,7 C 89 % 988,3 hPa 0,0 l/m 0 min 0 min 0 W/m 25,7 km/h (4 Bft) 100,00 %
16.01.2023 07:28 5,1 C 4,4 C 1,7 C 89 % 988,1 hPa 0,0 l/m 0 min 0 min 0 W/m 29,0 km/h (5 Bft) 95,74 %
16.01.2023 07:30 5,1 C 4,4 C 1,7 C 88 % 988,2 hPa 0,0 l/m 0 min 0 min 0 W/m 19,3 km/h (3 Bft) 93,62 %
16.01.2023 07:32 5,2 C 4,4 C 1,7 C 88 % 988,1 hPa 0,0 l/m 0 min 0 min 0 W/m 29,0 km/h (5 Bft) 100,00 %
16.01.2023 07:34 5,2 C 4,4 C 1,1 C 88 % 988,0 hPa 0,0 l/m 0 min 0 min 0 W/m 22,5 km/h (4 Bft) 100,00 %
16.01.2023 07:36 5,2 C 4,4 C 1,1 C 88 % 988,1 hPa 0,0 l/m 0 min 0 min 0 W/m 25,7 km/h (4 Bft) 97,83 %
16.01.2023 07:38 5,2 C 4,4 C 1,1 C 88 % 988,0 hPa 0,0 l/m 0 min 0 min 0 W/m 22,5 km/h (4 Bft) 95,74 %
16.01.2023 07:40 5,2 C 4,4 C 1,1 C 88 % 988,0 hPa 0,0 l/m 0 min 0 min 0 W/m 25,7 km/h (4 Bft) 97,87 %
16.01.2023 07:42 5,2 C 4,4 C 1,1 C 88 % 987,9 hPa 0,0 l/m 0 min 0 min 0 W/m 19,3 km/h (3 Bft) 95,74 %
16.01.2023 07:44 5,2 C 4,4 C 1,1 C 88 % 987,8 hPa 0,0 l/m 0 min 0 min 0 W/m 25,7 km/h (4 Bft) 100,00 %
16.01.2023 07:46 5,2 C 4,4 C 1,1 C 88 % 987,8 hPa 0,0 l/m 0 min 0 min 0 W/m 16,1 km/h (3 Bft) 95,74 %
16.01.2023 07:48 5,2 C 4,4 C 1,1 C 88 % 987,8 hPa 0,0 l/m 0 min 0 min 0 W/m 29,0 km/h (5 Bft) 93,62 %
16.01.2023 07:50 5,2 C 4,4 C 1,1 C 88 % 987,6 hPa 0,0 l/m 0 min 2 min 0 W/m 22,5 km/h (4 Bft) 93,48 %
16.01.2023 07:52 5,2 C 4,4 C 1,1 C 88 % 987,7 hPa 0,0 l/m 0 min 0 min 0 W/m 16,1 km/h (3 Bft) 95,74 %
16.01.2023 07:54 5,2 C 4,4 C 1,1 C 88 % 987,7 hPa 0,0 l/m 0 min 0 min 0 W/m 22,5 km/h (4 Bft) 89,36 %
16.01.2023 07:56 5,2 C 4,4 C 1,1 C 88 % 987,6 hPa 0,0 l/m 0 min 0 min 0 W/m 16,1 km/h (3 Bft) 97,87 %
16.01.2023 07:58 5,2 C 4,4 C 1,1 C 88 % 987,5 hPa 0,0 l/m 0 min 2 min 0 W/m 22,5 km/h (4 Bft) 95,74 %
16.01.2023 08:00 5,2 C 4,4 C 1,1 C 88 % 987,4 hPa 0,0 l/m 0 min 0 min 0 W/m 35,4 km/h (5 Bft) 93,62 %
16.01.2023 08:02 5,2 C 4,4 C 1,1 C 88 % 987,4 hPa 0,0 l/m 0 min 0 min 0 W/m 35,4 km/h (5 Bft) 95,74 %
16.01.2023 08:04 5,2 C 4,4 C 1,1 C 88 % 987,4 hPa 0,0 l/m 0 min 0 min 0 W/m 16,1 km/h (3 Bft) 95,65 %
16.01.2023 08:06 5,3 C 4,4 C 1,1 C 88 % 987,3 hPa 0,0 l/m 0 min 0 min 0 W/m 22,5 km/h (4 Bft) 94,92 %
16.01.2023 08:08 5,3 C 5,0 C 1,1 C 88 % 987,2 hPa 0,0 l/m 0 min 0 min 0 W/m 25,7 km/h (4 Bft) 94,29 %
16.01.2023 08:10 5,3 C 5,0 C 1,1 C 88 % 987,2 hPa 0,0 l/m 0 min 0 min 0 W/m 29,0 km/h (5 Bft) 95,74 %
16.01.2023 08:12 5,3 C 5,0 C 1,1 C 88 % 987,1 hPa 0,0 l/m 0 min 0 min 0 W/m 25,7 km/h (4 Bft) 91,49 %
16.01.2023 08:14 5,3 C 4,4 C 1,1 C 88 % 987,0 hPa 0,0 l/m 0 min 0 min 0 W/m 19,3 km/h (3 Bft) 95,74 %
16.01.2023 08:16 5,3 C 5,0 C 1,1 C 88 % 987,0 hPa 0,0 l/m 0 min 0 min 0 W/m 22,5 km/h (4 Bft) 91,49 %
16.01.2023 08:18 5,3 C 4,4 C 1,7 C 88 % 986,8 hPa 0,0 l/m 0 min 0 min 0 W/m 25,7 km/h (4 Bft) 93,48 %
16.01.2023 08:20 5,3 C 5,0 C 1,7 C 87 % 986,8 hPa 0,0 l/m 0 min 0 min 0 W/m 32,2 km/h (5 Bft) 93,62 %
16.01.2023 08:22 5,3 C 5,0 C 1,7 C 87 % 986,7 hPa 0,0 l/m 0 min 2 min 0 W/m 25,7 km/h (4 Bft) 95,74 %
16.01.2023 08:24 5,3 C 5,0 C 1,7 C 87 % 986,7 hPa 0,0 l/m 0 min 2 min 0 W/m 29,0 km/h (5 Bft) 95,74 %
16.01.2023 08:26 5,4 C 4,4 C 1,1 C 87 % 986,5 hPa 0,0 l/m 0 min 2 min 0 W/m 29,0 km/h (5 Bft) 97,87 %
16.01.2023 08:28 5,4 C 4,4 C 1,1 C 87 % 986,3 hPa 0,0 l/m 0 min 2 min 0 W/m 29,0 km/h (5 Bft) 95,74 %
16.01.2023 08:30 5,4 C 4,4 C 0,6 C 87 % 986,3 hPa 0,0 l/m 0 min 2 min 0 W/m 32,2 km/h (5 Bft) 97,83 %
16.01.2023 08:32 5,4 C 4,4 C 0,6 C 87 % 986,2 hPa 0,0 l/m 0 min 2 min 0 W/m 25,7 km/h (4 Bft) 100,00 %
16.01.2023 08:34 5,4 C 4,4 C 0,6 C 88 % 986,1 hPa 0,0 l/m 0 min 2 min 0 W/m 22,5 km/h (4 Bft) 100,00 %
16.01.2023 08:36 5,3 C 4,4 C 0,6 C 88 % 986,0 hPa 0,0 l/m 0 min 0 min 0 W/m 22,5 km/h (4 Bft) 100,00 %
16.01.2023 08:38 5,3 C 4,4 C 0,6 C 88 % 985,9 hPa 0,0 l/m 0 min 0 min 0 W/m 22,5 km/h (4 Bft) 97,87 %
16.01.2023 08:40 5,3 C 4,4 C 0,6 C 88 % 985,9 hPa 0,0 l/m 0 min 2 min 0 W/m 25,7 km/h (4 Bft) 100,00 %
16.01.2023 08:42 5,3 C 4,4 C 0,6 C 88 % 985,9 hPa 0,0 l/m 0 min 0 min 0 W/m 29,0 km/h (5 Bft) 100,00 %
16.01.2023 08:44 5,3 C 4,4 C 0,6 C 88 % 985,8 hPa 0,0 l/m 0 min 2 min 0 W/m 29,0 km/h (5 Bft) 100,00 %
16.01.2023 08:46 5,3 C 4,4 C 0,6 C 88 % 985,7 hPa 0,0 l/m 0 min 2 min 0 W/m 16,1 km/h (3 Bft) 100,00 %
16.01.2023 08:48 5,3 C 4,4 C 0,6 C 88 % 985,6 hPa 0,0 l/m 0 min 2 min 0 W/m 22,5 km/h (4 Bft) 100,00 %
16.01.2023 08:50 5,3 C 4,4 C 0,6 C 88 % 985,5 hPa 0,2 l/m 0 min 2 min 0 W/m 25,7 km/h (4 Bft) 100,00 %
16.01.2023 08:52 5,3 C 4,4 C 0,6 C 88 % 985,5 hPa 0,0 l/m 0 min 2 min 0 W/m 29,0 km/h (5 Bft) 97,87 %
16.01.2023 08:54 5,3 C 4,4 C 0,6 C 88 % 985,4 hPa 0,0 l/m 0 min 2 min 0 W/m 22,5 km/h (4 Bft) 100,00 %
16.01.2023 08:56 5,2 C 4,4 C 0,6 C 88 % 985,5 hPa 0,0 l/m 0 min 2 min 3 W/m 22,5 km/h (4 Bft) 100,00 %
16.01.2023 08:58 5,2 C 4,4 C 0,6 C 89 % 985,4 hPa 0,0 l/m 0 min 2 min 5 W/m 25,7 km/h (4 Bft) 100,00 %
16.01.2023 09:00 5,2 C 4,4 C 0,6 C 89 % 985,4 hPa 0,0 l/m 0 min 2 min 6 W/m 22,5 km/h (4 Bft) 100,00 %
16.01.2023 09:02 5,2 C 4,4 C 0,6 C 89 % 985,4 hPa 0,0 l/m 0 min 2 min 9 W/m 22,5 km/h (4 Bft) 100,00 %
16.01.2023 09:04 5,2 C 4,4 C 0,6 C 89 % 985,2 hPa 0,0 l/m 0 min 2 min 8 W/m 25,7 km/h (4 Bft) 95,74 %
16.01.2023 09:06 5,2 C 4,4 C 0,6 C 89 % 985,1 hPa 0,0 l/m 0 min 2 min 7 W/m 25,7 km/h (4 Bft) 96,55 %
16.01.2023 09:08 5,2 C 4,4 C 0,6 C 89 % 985,1 hPa 0,0 l/m 0 min 2 min 8 W/m 25,7 km/h (4 Bft) 97,22 %
16.01.2023 09:10 5,2 C 4,4 C 0,6 C 89 % 985,2 hPa 0,0 l/m 0 min 2 min 10 W/m 19,3 km/h (3 Bft) 97,83 %
16.01.2023 09:12 5,2 C 4,4 C 0,6 C 89 % 985,1 hPa 0,0 l/m 0 min 0 min 10 W/m 29,0 km/h (5 Bft) 97,87 %
16.01.2023 09:14 5,2 C 4,4 C 0,6 C 89 % 985,1 hPa 0,0 l/m 0 min 2 min 11 W/m 25,7 km/h (4 Bft) 97,87 %
16.01.2023 09:16 5,2 C 4,4 C 0,6 C 89 % 984,9 hPa 0,0 l/m 0 min 0 min 14 W/m 25,7 km/h (4 Bft) 97,87 %
16.01.2023 09:18 5,1 C 4,4 C 0,6 C 89 % 984,9 hPa 0,0 l/m 0 min 2 min 12 W/m 32,2 km/h (5 Bft) 97,87 %
16.01.2023 09:20 5,1 C 4,4 C 0,6 C 89 % 985,0 hPa 0,0 l/m 0 min 0 min 10 W/m 41,8 km/h (6 Bft) 95,74 %
16.01.2023 09:22 5,2 C 4,4 C 0,6 C 89 % 984,8 hPa 0,0 l/m 0 min 0 min 14 W/m 29,0 km/h (5 Bft) 97,87 %
16.01.2023 09:24 5,1 C 4,4 C 0,6 C 89 % 984,8 hPa 0,0 l/m 0 min 0 min 12 W/m 29,0 km/h (5 Bft) 97,83 %
16.01.2023 09:26 5,2 C 4,4 C 0,6 C 89 % 984,9 hPa 0,0 l/m 0 min 0 min 11 W/m 29,0 km/h (5 Bft) 95,74 %
16.01.2023 09:28 5,2 C 4,4 C 0,6 C 89 % 984,7 hPa 0,0 l/m 0 min 0 min 12 W/m 25,7 km/h (4 Bft) 95,74 %
16.01.2023 09:30 5,2 C 4,4 C 0,6 C 89 % 984,7 hPa 0,0 l/m 0 min 0 min 12 W/m 19,3 km/h (3 Bft) 95,74 %
16.01.2023 09:32 5,2 C 4,4 C 0,6 C 89 % 984,7 hPa 0,0 l/m 0 min 0 min 11 W/m 25,7 km/h (4 Bft) 95,74 %
16.01.2023 09:34 5,2 C 4,4 C 0,6 C 89 % 984,5 hPa 0,0 l/m 0 min 0 min 11 W/m 25,7 km/h (4 Bft) 95,74 %
16.01.2023 09:36 5,2 C 4,4 C 0,6 C 89 % 984,5 hPa 0,0 l/m 0 min 0 min 9 W/m 19,3 km/h (3 Bft) 95,74 %
16.01.2023 09:38 5,2 C 4,4 C 0,6 C 89 % 984,5 hPa 0,0 l/m 0 min 2 min 10 W/m 45,1 km/h (6 Bft) 93,48 %
16.01.2023 09:40 5,2 C 4,4 C 0,6 C 89 % 984,4 hPa 0,0 l/m 0 min 2 min 10 W/m 25,7 km/h (4 Bft) 95,74 %
16.01.2023 09:42 5,2 C 4,4 C 0,6 C 89 % 984,4 hPa 0,2 l/m 0 min 2 min 11 W/m 25,7 km/h (4 Bft) 95,74 %
16.01.2023 09:44 5,2 C 4,4 C 0,6 C 89 % 984,3 hPa 0,0 l/m 0 min 2 min 11 W/m 29,0 km/h (5 Bft) 95,74 %
16.01.2023 09:46 5,2 C 3,9 C 0,6 C 89 % 984,4 hPa 0,0 l/m 0 min 2 min 12 W/m 22,5 km/h (4 Bft) 95,74 %
16.01.2023 09:48 5,2 C 3,9 C 0,6 C 89 % 984,3 hPa 0,2 l/m 0 min 2 min 13 W/m 29,0 km/h (5 Bft) 95,74 %
16.01.2023 09:50 5,1 C 3,9 C 0,6 C 90 % 984,3 hPa 0,0 l/m 0 min 2 min 13 W/m 35,4 km/h (5 Bft) 93,62 %
16.01.2023 09:52 5,1 C 3,9 C 0,6 C 90 % 984,3 hPa 0,0 l/m 0 min 2 min 14 W/m 29,0 km/h (5 Bft) 95,74 %
16.01.2023 09:54 5,1 C 3,9 C 0,6 C 90 % 984,3 hPa 0,0 l/m 0 min 2 min 14 W/m 32,2 km/h (5 Bft) 93,48 %
16.01.2023 09:56 5,1 C 3,9 C 0,6 C 90 % 984,3 hPa 0,0 l/m 0 min 2 min 15 W/m 22,5 km/h (4 Bft) 93,62 %
16.01.2023 09:58 5,1 C 3,9 C 0,6 C 90 % 984,2 hPa 0,0 l/m 0 min 2 min 18 W/m 29,0 km/h (5 Bft) 95,74 %
16.01.2023 10:00 5,1 C 3,9 C 0,6 C 90 % 984,2 hPa 0,0 l/m 0 min 2 min 18 W/m 32,2 km/h (5 Bft) 95,74 %
16.01.2023 10:02 5,1 C 3,9 C 0,6 C 90 % 984,1 hPa 0,0 l/m 0 min 2 min 17 W/m 29,0 km/h (5 Bft) 95,74 %
16.01.2023 10:04 5,0 C 3,9 C 0,6 C 90 % 984,1 hPa 0,2 l/m 0 min 2 min 16 W/m 29,0 km/h (5 Bft) 97,87 %
16.01.2023 10:06 5,0 C 3,9 C 0,6 C 90 % 984,2 hPa 0,0 l/m 0 min 2 min 16 W/m 22,5 km/h (4 Bft) 94,83 %
16.01.2023 10:08 4,9 C 3,9 C 0,6 C 91 % 984,0 hPa 0,0 l/m 0 min 2 min 19 W/m 35,4 km/h (5 Bft) 100,00 %
16.01.2023 10:10 4,9 C 3,9 C 0,6 C 91 % 984,0 hPa 0,0 l/m 0 min 2 min 19 W/m 32,2 km/h (5 Bft) 97,87 %
16.01.2023 10:12 4,9 C 3,9 C 0,6 C 91 % 984,0 hPa 0,0 l/m 0 min 2 min 22 W/m 22,5 km/h (4 Bft) 97,87 %
16.01.2023 10:14 4,9 C 3,9 C 0,6 C 91 % 983,9 hPa 0,0 l/m 0 min 2 min 23 W/m 32,2 km/h (5 Bft) 93,62 %
16.01.2023 10:16 4,9 C 3,9 C 0,6 C 91 % 983,8 hPa 0,2 l/m 0 min 2 min 24 W/m 29,0 km/h (5 Bft) 97,87 %
16.01.2023 10:18 4,9 C 3,9 C 0,6 C 91 % 983,8 hPa 0,0 l/m 0 min 2 min 26 W/m 22,5 km/h (4 Bft) 97,87 %
16.01.2023 10:20 4,9 C 3,9 C 0,6 C 91 % 983,8 hPa 0,0 l/m 0 min 2 min 29 W/m 35,4 km/h (5 Bft) 95,74 %
16.01.2023 10:22 4,9 C 3,9 C 0,6 C 91 % 983,6 hPa 0,0 l/m 0 min 0 min 31 W/m 35,4 km/h (5 Bft) 97,83 %
16.01.2023 10:24 4,9 C 3,9 C 0,6 C 91 % 983,7 hPa 0,0 l/m 0 min 2 min 30 W/m 35,4 km/h (5 Bft) 97,87 %
16.01.2023 10:26 4,9 C 3,9 C 0,6 C 91 % 983,7 hPa 0,0 l/m 0 min 2 min 29 W/m 41,8 km/h (6 Bft) 97,87 %
16.01.2023 10:28 4,9 C 3,9 C 0,6 C 91 % 983,6 hPa 0,0 l/m 0 min 2 min 30 W/m 29,0 km/h (5 Bft) 97,87 %
16.01.2023 10:30 4,9 C 3,9 C 0,6 C 91 % 983,7 hPa 0,0 l/m 0 min 2 min 32 W/m 25,7 km/h (4 Bft) 95,74 %
16.01.2023 10:32 4,9 C 3,9 C 0,6 C 91 % 983,5 hPa 0,0 l/m 0 min 2 min 34 W/m 22,5 km/h (4 Bft) 97,87 %
16.01.2023 10:34 4,9 C 3,9 C 0,6 C 91 % 983,5 hPa 0,0 l/m 0 min 2 min 35 W/m 25,7 km/h (4 Bft) 93,62 %
16.01.2023 10:36 4,9 C 3,9 C 0,6 C 91 % 983,6 hPa 0,0 l/m 0 min 2 min 36 W/m 32,2 km/h (5 Bft) 97,83 %
16.01.2023 10:38 4,9 C 3,9 C 0,6 C 91 % 983,6 hPa 0,0 l/m 0 min 2 min 37 W/m 32,2 km/h (5 Bft) 93,62 %
16.01.2023 10:40 4,9 C 3,9 C 0,6 C 91 % 983,5 hPa 0,0 l/m 0 min 2 min 39 W/m 38,6 km/h (5 Bft) 97,87 %
16.01.2023 10:42 4,9 C 3,9 C 0,6 C 91 % 983,5 hPa 0,0 l/m 0 min 2 min 39 W/m 35,4 km/h (5 Bft) 97,87 %
16.01.2023 10:44 4,9 C 3,9 C 0,6 C 91 % 983,5 hPa 0,0 l/m 0 min 0 min 35 W/m 32,2 km/h (5 Bft) 97,87 %
16.01.2023 10:46 4,9 C 3,9 C 0,6 C 91 % 983,4 hPa 0,0 l/m 0 min 0 min 32 W/m 29,0 km/h (5 Bft) 95,74 %
16.01.2023 10:48 4,9 C 3,9 C 0,6 C 91 % 983,4 hPa 0,0 l/m 0 min 2 min 31 W/m 35,4 km/h (5 Bft) 95,65 %
16.01.2023 10:50 4,9 C 3,9 C 0,6 C 91 % 983,4 hPa 0,0 l/m 0 min 2 min 36 W/m 22,5 km/h (4 Bft) 97,87 %
16.01.2023 10:52 4,9 C 4,4 C 0,6 C 91 % 983,4 hPa 0,0 l/m 0 min 2 min 41 W/m 35,4 km/h (5 Bft) 100,00 %
16.01.2023 10:54 4,9 C 4,4 C 0,6 C 91 % 983,4 hPa 0,0 l/m 0 min 2 min 41 W/m 35,4 km/h (5 Bft) 100,00 %
16.01.2023 10:56 4,9 C 4,4 C 0,6 C 91 % 983,4 hPa 0,0 l/m 0 min 2 min 38 W/m 25,7 km/h (4 Bft) 97,87 %
16.01.2023 10:58 4,9 C 4,4 C 0,6 C 91 % 983,3 hPa 0,0 l/m 0 min 2 min 32 W/m 41,8 km/h (6 Bft) 95,74 %
16.01.2023 11:00 4,9 C 4,4 C 0,6 C 91 % 983,3 hPa 0,0 l/m 0 min 0 min 27 W/m 35,4 km/h (5 Bft) 100,00 %
16.01.2023 11:02 4,9 C 4,4 C 0,6 C 90 % 983,3 hPa 0,0 l/m 0 min 2 min 25 W/m 35,4 km/h (5 Bft) 100,00 %
16.01.2023 11:04 4,9 C 4,4 C 0,6 C 90 % 983,3 hPa 0,0 l/m 0 min 0 min 25 W/m 25,7 km/h (4 Bft) 97,87 %
16.01.2023 11:06 4,9 C 4,4 C 0,6 C 90 % 983,2 hPa 0,0 l/m 0 min 2 min 28 W/m 41,8 km/h (6 Bft) 100,00 %
16.01.2023 11:08 4,9 C 4,4 C 0,6 C 90 % 983,2 hPa 0,0 l/m 0 min 0 min 32 W/m 41,8 km/h (6 Bft) 100,00 %
16.01.2023 11:10 4,9 C 4,4 C 0,6 C 90 % 983,2 hPa 0,0 l/m 0 min 0 min 34 W/m 29,0 km/h (5 Bft) 100,00 %
16.01.2023 11:12 4,9 C 4,4 C 0,6 C 90 % 983,1 hPa 0,0 l/m 0 min 0 min 38 W/m 25,7 km/h (4 Bft) 100,00 %
16.01.2023 11:14 4,9 C 4,4 C 0,6 C 90 % 983,1 hPa 0,0 l/m 0 min 0 min 43 W/m 32,2 km/h (5 Bft) 97,87 %
16.01.2023 11:16 4,9 C 4,4 C 0,6 C 90 % 983,1 hPa 0,0 l/m 0 min 0 min 47 W/m 32,2 km/h (5 Bft) 100,00 %
16.01.2023 11:18 4,9 C 4,4 C 0,6 C 90 % 982,9 hPa 0,0 l/m 0 min 0 min 47 W/m 35,4 km/h (5 Bft) 95,74 %
16.01.2023 11:20 4,9 C 4,4 C 0,6 C 90 % 982,9 hPa 0,0 l/m 0 min 0 min 50 W/m 32,2 km/h (5 Bft) 97,87 %
16.01.2023 11:22 4,9 C 4,4 C 0,6 C 90 % 982,8 hPa 0,0 l/m 0 min 0 min 54 W/m 22,5 km/h (4 Bft) 100,00 %
16.01.2023 11:24 5,0 C 4,4 C 0,6 C 90 % 982,8 hPa 0,0 l/m 0 min 0 min 62 W/m 35,4 km/h (5 Bft) 97,87 %
16.01.2023 11:26 5,0 C 4,4 C 0,6 C 90 % 982,8 hPa 0,0 l/m 0 min 0 min 71 W/m 29,0 km/h (5 Bft) 100,00 %
16.01.2023 11:28 5,0 C 4,4 C 0,6 C 90 % 982,7 hPa 0,0 l/m 0 min 0 min 76 W/m 32,2 km/h (5 Bft) 97,87 %
16.01.2023 11:30 5,0 C 4,4 C 0,6 C 90 % 982,7 hPa 0,0 l/m 0 min 0 min 72 W/m 25,7 km/h (4 Bft) 97,83 %
16.01.2023 11:32 5,0 C 4,4 C 0,6 C 90 % 982,6 hPa 0,0 l/m 0 min 0 min 68 W/m 35,4 km/h (5 Bft) 97,87 %
16.01.2023 11:34 5,0 C 4,4 C 0,6 C 89 % 982,6 hPa 0,0 l/m 0 min 0 min 70 W/m 35,4 km/h (5 Bft) 97,87 %
16.01.2023 11:36 5,1 C 4,4 C 0,6 C 89 % 982,5 hPa 0,0 l/m 0 min 0 min 75 W/m 32,2 km/h (5 Bft) 93,62 %
16.01.2023 11:38 5,1 C 4,4 C 0,6 C 89 % 982,5 hPa 0,0 l/m 0 min 0 min 83 W/m 35,4 km/h (5 Bft) 93,62 %
16.01.2023 11:40 5,1 C 5,0 C 0,6 C 89 % 982,5 hPa 0,0 l/m 0 min 0 min 86 W/m 25,7 km/h (4 Bft) 97,87 %
16.01.2023 11:42 5,1 C 5,0 C 0,6 C 89 % 982,4 hPa 0,0 l/m 0 min 0 min 96 W/m 32,2 km/h (5 Bft) 93,62 %
16.01.2023 11:44 5,1 C 5,0 C 0,6 C 89 % 982,4 hPa 0,0 l/m 0 min 0 min 107 W/m 22,5 km/h (4 Bft) 97,83 %
16.01.2023 11:46 5,1 C 5,0 C 0,6 C 89 % 982,4 hPa 0,0 l/m 0 min 0 min 112 W/m 25,7 km/h (4 Bft) 95,74 %
16.01.2023 11:48 5,1 C 5,0 C 0,6 C 89 % 982,4 hPa 0,0 l/m 0 min 0 min 118 W/m 45,1 km/h (6 Bft) 97,87 %
16.01.2023 11:50 5,2 C 5,0 C 0,6 C 89 % 982,4 hPa 0,0 l/m 0 min 0 min 126 W/m 25,7 km/h (4 Bft) 97,87 %
16.01.2023 11:52 5,2 C 5,0 C 0,6 C 89 % 982,3 hPa 0,0 l/m 0 min 0 min 129 W/m 35,4 km/h (5 Bft) 95,74 %
16.01.2023 11:54 5,2 C 5,0 C 0,6 C 89 % 982,4 hPa 0,0 l/m 0 min 0 min 123 W/m 38,6 km/h (5 Bft) 97,87 %
16.01.2023 11:56 5,2 C 5,0 C 0,6 C 89 % 982,3 hPa 0,0 l/m 0 min 0 min 112 W/m 25,7 km/h (4 Bft) 97,83 %
16.01.2023 11:58 5,2 C 5,0 C 0,6 C 89 % 982,2 hPa 0,0 l/m 0 min 0 min 109 W/m 29,0 km/h (5 Bft) 95,74 %
16.01.2023 12:00 5,3 C 5,0 C 0,6 C 88 % 982,1 hPa 0,0 l/m 0 min 0 min 118 W/m 29,0 km/h (5 Bft) 100,00 %
16.01.2023 12:02 5,3 C 5,0 C 1,1 C 88 % 982,0 hPa 0,0 l/m 0 min 0 min 127 W/m 22,5 km/h (4 Bft) 100,00 %
16.01.2023 12:04 5,3 C 5,6 C 1,1 C 88 % 982,0 hPa 0,0 l/m 0 min 0 min 126 W/m 19,3 km/h (3 Bft) 100,00 %
16.01.2023 12:07 5,3 C 5,0 C 1,1 C 88 % 981,8 hPa 0,0 l/m 0 min 0 min 112 W/m 29,0 km/h (5 Bft) 98,57 %
16.01.2023 12:08 5,3 C 5,0 C 1,1 C 88 % 981,8 hPa 0,0 l/m 0 min 0 min 100 W/m 22,5 km/h (4 Bft) 100,00 %
16.01.2023 12:10 5,3 C 5,0 C 1,1 C 88 % 981,7 hPa 0,0 l/m 0 min 0 min 100 W/m 32,2 km/h (5 Bft) 100,00 %
16.01.2023 12:12 5,4 C 5,0 C 1,1 C 88 % 981,7 hPa 0,0 l/m 0 min 0 min 99 W/m 19,3 km/h (3 Bft) 97,87 %
16.01.2023 12:14 5,4 C 5,0 C 1,1 C 88 % 981,6 hPa 0,0 l/m 0 min 0 min 102 W/m 25,7 km/h (4 Bft) 97,87 %
16.01.2023 12:16 5,4 C 5,0 C 1,1 C 88 % 981,6 hPa 0,0 l/m 0 min 0 min 101 W/m 29,0 km/h (5 Bft) 93,62 %
16.01.2023 12:18 5,4 C 5,0 C 1,1 C 88 % 981,5 hPa 0,0 l/m 0 min 0 min 98 W/m 32,2 km/h (5 Bft) 97,87 %
16.01.2023 12:20 5,4 C 5,0 C 1,7 C 88 % 981,4 hPa 0,0 l/m 0 min 0 min 101 W/m 29,0 km/h (5 Bft) 97,87 %
16.01.2023 12:22 5,4 C 5,0 C 1,7 C 88 % 981,5 hPa 0,0 l/m 0 min 0 min 106 W/m 25,7 km/h (4 Bft) 95,74 %
16.01.2023 12:24 5,4 C 5,0 C 1,7 C 88 % 981,5 hPa 0,0 l/m 0 min 0 min 112 W/m 29,0 km/h (5 Bft) 93,48 %
16.01.2023 12:26 5,4 C 5,0 C 1,7 C 88 % 981,4 hPa 0,0 l/m 0 min 0 min 114 W/m 35,4 km/h (5 Bft) 95,74 %
16.01.2023 12:28 5,4 C 5,0 C 1,7 C 88 % 981,3 hPa 0,0 l/m 0 min 0 min 114 W/m 35,4 km/h (5 Bft) 97,87 %
16.01.2023 12:30 5,4 C 5,0 C 1,7 C 88 % 981,2 hPa 0,0 l/m 0 min 0 min 116 W/m 29,0 km/h (5 Bft) 93,62 %
16.01.2023 12:32 5,5 C 5,6 C 1,7 C 88 % 981,2 hPa 0,0 l/m 0 min 0 min 131 W/m 29,0 km/h (5 Bft) 95,74 %
16.01.2023 12:34 5,5 C 5,6 C 1,7 C 87 % 981,2 hPa 0,0 l/m 0 min 0 min 140 W/m 29,0 km/h (5 Bft) 95,74 %
16.01.2023 12:36 5,6 C 5,6 C 1,7 C 87 % 981,1 hPa 0,0 l/m 0 min 0 min 143 W/m 29,0 km/h (5 Bft) 93,62 %
16.01.2023 12:38 5,6 C 5,6 C 1,7 C 87 % 981,1 hPa 0,0 l/m 0 min 0 min 150 W/m 32,2 km/h (5 Bft) 93,48 %
16.01.2023 12:40 5,6 C 5,6 C 1,7 C 87 % 981,0 hPa 0,0 l/m 0 min 0 min 155 W/m 19,3 km/h (3 Bft) 95,74 %
16.01.2023 12:42 5,6 C 5,6 C 1,7 C 87 % 981,1 hPa 0,0 l/m 0 min 0 min 164 W/m 25,7 km/h (4 Bft) 93,62 %
16.01.2023 12:44 5,6 C 5,6 C 2,2 C 87 % 981,0 hPa 0,0 l/m 2 min 0 min 178 W/m 29,0 km/h (5 Bft) 93,62 %
16.01.2023 12:46 5,7 C 5,6 C 2,2 C 87 % 981,0 hPa 0,0 l/m 0 min 0 min 162 W/m 25,7 km/h (4 Bft) 93,62 %
16.01.2023 12:48 5,7 C 5,6 C 2,2 C 87 % 980,9 hPa 0,0 l/m 0 min 0 min 120 W/m 22,5 km/h (4 Bft) 93,62 %
16.01.2023 12:50 5,7 C 5,6 C 2,2 C 87 % 980,9 hPa 0,0 l/m 0 min 0 min 83 W/m 29,0 km/h (5 Bft) 96,30 %
16.01.2023 12:52 5,7 C 5,6 C 2,2 C 87 % 980,9 hPa 0,0 l/m 0 min 0 min 63 W/m 25,7 km/h (4 Bft) 95,74 %
16.01.2023 12:54 5,7 C 5,0 C 1,7 C 87 % 980,9 hPa 0,0 l/m 0 min 0 min 54 W/m 29,0 km/h (5 Bft) 93,62 %
16.01.2023 12:56 5,7 C 5,0 C 1,7 C 87 % 980,8 hPa 0,0 l/m 0 min 2 min 49 W/m 19,3 km/h (3 Bft) 94,74 %
16.01.2023 12:58 5,7 C 5,0 C 1,7 C 87 % 980,8 hPa 0,0 l/m 0 min 2 min 40 W/m 32,2 km/h (5 Bft) 95,74 %
16.01.2023 13:00 5,7 C 5,0 C 1,1 C 87 % 980,8 hPa 0,0 l/m 0 min 2 min 33 W/m 25,7 km/h (4 Bft) 93,62 %
16.01.2023 13:02 5,6 C 5,0 C 1,1 C 87 % 980,7 hPa 0,0 l/m 0 min 2 min 35 W/m 19,3 km/h (3 Bft) 97,87 %
16.01.2023 13:04 5,6 C 4,4 C 1,1 C 87 % 980,7 hPa 0,0 l/m 0 min 2 min 50 W/m 35,4 km/h (5 Bft) 95,74 %
16.01.2023 13:06 5,6 C 5,0 C 1,1 C 87 % 980,6 hPa 0,0 l/m 0 min 2 min 71 W/m 32,2 km/h (5 Bft) 98,28 %
16.01.2023 13:08 5,5 C 5,0 C 1,1 C 88 % 980,5 hPa 0,0 l/m 0 min 0 min 71 W/m 32,2 km/h (5 Bft) 97,14 %
16.01.2023 13:10 5,5 C 5,0 C 1,1 C 88 % 980,5 hPa 0,0 l/m 0 min 2 min 64 W/m 22,5 km/h (4 Bft) 97,87 %
16.01.2023 13:12 5,4 C 5,0 C 1,1 C 88 % 980,4 hPa 0,0 l/m 0 min 0 min 56 W/m 25,7 km/h (4 Bft) 93,62 %
16.01.2023 13:14 5,4 C 5,0 C 1,7 C 88 % 980,3 hPa 0,0 l/m 0 min 2 min 47 W/m 16,1 km/h (3 Bft) 95,74 %
16.01.2023 13:16 5,4 C 5,0 C 1,1 C 88 % 980,3 hPa 0,0 l/m 0 min 2 min 36 W/m 22,5 km/h (4 Bft) 97,87 %
16.01.2023 13:18 5,4 C 4,4 C 1,1 C 88 % 980,1 hPa 0,0 l/m 0 min 2 min 31 W/m 25,7 km/h (4 Bft) 100,00 %
16.01.2023 13:20 5,4 C 4,4 C 1,1 C 88 % 980,2 hPa 0,0 l/m 0 min 2 min 31 W/m 22,5 km/h (4 Bft) 97,87 %
16.01.2023 13:22 5,4 C 4,4 C 0,6 C 88 % 980,1 hPa 0,0 l/m 0 min 2 min 35 W/m 25,7 km/h (4 Bft) 100,00 %
16.01.2023 13:24 5,4 C 4,4 C 0,6 C 88 % 980,0 hPa 0,2 l/m 0 min 2 min 42 W/m 25,7 km/h (4 Bft) 95,74 %
16.01.2023 13:26 5,3 C 4,4 C 0,6 C 89 % 980,0 hPa 0,0 l/m 0 min 2 min 48 W/m 25,7 km/h (4 Bft) 97,87 %
16.01.2023 13:28 5,3 C 4,4 C 0,6 C 89 % 979,9 hPa 0,0 l/m 0 min 2 min 52 W/m 22,5 km/h (4 Bft) 95,74 %
16.01.2023 13:30 5,3 C 4,4 C 1,1 C 89 % 979,8 hPa 0,0 l/m 0 min 0 min 62 W/m 19,3 km/h (3 Bft) 97,87 %
16.01.2023 13:32 5,3 C 4,4 C 1,1 C 89 % 979,8 hPa 0,0 l/m 0 min 0 min 62 W/m 35,4 km/h (5 Bft) 95,74 %
16.01.2023 13:34 5,3 C 5,0 C 1,1 C 89 % 979,7 hPa 0,0 l/m 0 min 0 min 64 W/m 29,0 km/h (5 Bft) 97,83 %
16.01.2023 13:36 5,3 C 5,0 C 1,1 C 89 % 979,7 hPa 0,0 l/m 0 min 2 min 70 W/m 22,5 km/h (4 Bft) 97,87 %
16.01.2023 13:38 5,3 C 5,0 C 1,1 C 89 % 979,6 hPa 0,0 l/m 0 min 0 min 67 W/m 29,0 km/h (5 Bft) 97,87 %
16.01.2023 13:40 5,3 C 5,0 C 1,1 C 89 % 979,5 hPa 0,0 l/m 0 min 2 min 67 W/m 22,5 km/h (4 Bft) 95,74 %
16.01.2023 13:42 5,3 C 5,0 C 1,1 C 90 % 979,5 hPa 0,0 l/m 0 min 0 min 69 W/m 25,7 km/h (4 Bft) 95,74 %
16.01.2023 13:44 5,4 C 5,0 C 1,1 C 90 % 979,5 hPa 0,0 l/m 0 min 0 min 63 W/m 22,5 km/h (4 Bft) 97,87 %
16.01.2023 13:46 5,4 C 5,0 C 1,1 C 90 % 979,5 hPa 0,0 l/m 0 min 0 min 50 W/m 25,7 km/h (4 Bft) 97,87 %
16.01.2023 13:48 5,4 C 5,0 C 1,1 C 90 % 979,5 hPa 0,0 l/m 0 min 2 min 28 W/m 25,7 km/h (4 Bft) 97,83 %
16.01.2023 13:50 5,4 C 4,4 C 1,1 C 90 % 979,5 hPa 0,0 l/m 0 min 2 min 20 W/m 35,4 km/h (5 Bft) 97,87 %
16.01.2023 13:52 5,4 C 4,4 C 1,1 C 90 % 979,3 hPa 0,0 l/m 0 min 2 min 18 W/m 19,3 km/h (3 Bft) 97,87 %
16.01.2023 13:54 5,4 C 4,4 C 0,6 C 90 % 979,3 hPa 0,0 l/m 0 min 2 min 21 W/m 29,0 km/h (5 Bft) 65,96 %
16.01.2023 13:56 5,4 C 4,4 C 0,6 C 90 % 979,2 hPa 0,2 l/m 0 min 2 min 31 W/m 22,5 km/h (4 Bft) 86,49 %
16.01.2023 13:58 5,4 C 4,4 C 0,6 C 90 % 979,2 hPa 0,0 l/m 0 min 2 min 39 W/m 19,3 km/h (3 Bft) 100,00 %
16.01.2023 14:00 5,3 C 4,4 C 0,6 C 90 % 979,1 hPa 0,0 l/m 0 min 2 min 38 W/m 22,5 km/h (4 Bft) 100,00 %
16.01.2023 14:02 5,3 C 4,4 C 0,6 C 90 % 979,1 hPa 0,0 l/m 0 min 2 min 34 W/m 35,4 km/h (5 Bft) 100,00 %
16.01.2023 14:04 5,3 C 4,4 C 0,6 C 90 % 979,0 hPa 0,0 l/m 0 min 2 min 34 W/m 25,7 km/h (4 Bft) 100,00 %
16.01.2023 14:06 5,3 C 4,4 C 0,6 C 90 % 979,0 hPa 0,0 l/m 0 min 0 min 37 W/m 19,3 km/h (3 Bft) 100,00 %
16.01.2023 14:08 5,3 C 4,4 C 0,6 C 91 % 978,9 hPa 0,0 l/m 0 min 0 min 43 W/m 19,3 km/h (3 Bft) 100,00 %
16.01.2023 14:10 5,3 C 4,4 C 0,6 C 91 % 979,0 hPa 0,0 l/m 0 min 0 min 48 W/m 22,5 km/h (4 Bft) 100,00 %
16.01.2023 14:12 5,2 C 4,4 C 0,6 C 91 % 978,8 hPa 0,0 l/m 0 min 0 min 48 W/m 22,5 km/h (4 Bft) 100,00 %
16.01.2023 14:14 5,2 C 4,4 C 0,6 C 91 % 978,8 hPa 0,0 l/m 0 min 0 min 44 W/m 25,7 km/h (4 Bft) 97,87 %
16.01.2023 14:16 5,2 C 4,4 C 0,6 C 91 % 978,9 hPa 0,0 l/m 0 min 0 min 41 W/m 22,5 km/h (4 Bft) 100,00 %
16.01.2023 14:18 5,2 C 4,4 C 0,6 C 91 % 978,8 hPa 0,0 l/m 0 min 0 min 40 W/m 25,7 km/h (4 Bft) 100,00 %
16.01.2023 14:20 5,2 C 4,4 C 0,6 C 91 % 978,8 hPa 0,0 l/m 0 min 0 min 46 W/m 22,5 km/h (4 Bft) 100,00 %
16.01.2023 14:22 5,2 C 4,4 C 0,6 C 91 % 978,8 hPa 0,0 l/m 0 min 2 min 41 W/m 35,4 km/h (5 Bft) 100,00 %
16.01.2023 14:24 5,2 C 4,4 C 0,6 C 91 % 978,7 hPa 0,0 l/m 0 min 2 min 41 W/m 25,7 km/h (4 Bft) 97,87 %
16.01.2023 14:26 5,2 C 4,4 C 0,6 C 91 % 978,8 hPa 0,0 l/m 0 min 2 min 42 W/m 22,5 km/h (4 Bft) 100,00 %
16.01.2023 14:28 5,2 C 4,4 C 0,6 C 91 % 978,8 hPa 0,0 l/m 0 min 2 min 39 W/m 19,3 km/h (3 Bft) 100,00 %
16.01.2023 14:30 5,3 C 4,4 C 0,6 C 91 % 978,7 hPa 0,2 l/m 0 min 2 min 35 W/m 22,5 km/h (4 Bft) 100,00 %
16.01.2023 14:32 5,2 C 4,4 C 0,6 C 91 % 978,7 hPa 0,0 l/m 0 min 2 min 37 W/m 32,2 km/h (5 Bft) 100,00 %
16.01.2023 14:34 5,2 C 4,4 C 0,6 C 91 % 978,7 hPa 0,0 l/m 0 min 2 min 37 W/m 22,5 km/h (4 Bft) 100,00 %
16.01.2023 14:36 5,2 C 3,9 C 0,6 C 91 % 978,7 hPa 0,2 l/m 0 min 2 min 31 W/m 22,5 km/h (4 Bft) 100,00 %
16.01.2023 14:38 5,2 C 3,9 C 0,6 C 91 % 978,6 hPa 0,0 l/m 0 min 2 min 34 W/m 16,1 km/h (3 Bft) 97,87 %
16.01.2023 14:40 5,2 C 3,9 C 0,6 C 91 % 978,6 hPa 0,0 l/m 0 min 2 min 40 W/m 22,5 km/h (4 Bft) 100,00 %
16.01.2023 14:42 5,2 C 3,9 C 0,6 C 91 % 978,6 hPa 0,0 l/m 0 min 2 min 40 W/m 29,0 km/h (5 Bft) 93,48 %
16.01.2023 14:44 5,2 C 3,9 C 0,6 C 91 % 978,5 hPa 0,0 l/m 0 min 2 min 36 W/m 22,5 km/h (4 Bft) 97,87 %
16.01.2023 14:46 5,2 C 3,9 C 0,6 C 91 % 978,5 hPa 0,0 l/m 0 min 2 min 34 W/m 22,5 km/h (4 Bft) 100,00 %
16.01.2023 14:48 5,2 C 3,9 C 0,6 C 91 % 978,5 hPa 0,2 l/m 0 min 2 min 33 W/m 25,7 km/h (4 Bft) 100,00 %
16.01.2023 14:50 5,2 C 3,9 C 0,6 C 92 % 978,5 hPa 0,0 l/m 0 min 2 min 30 W/m 25,7 km/h (4 Bft) 100,00 %
16.01.2023 14:52 5,2 C 3,9 C 0,6 C 92 % 978,4 hPa 0,2 l/m 0 min 2 min 30 W/m 19,3 km/h (3 Bft) 97,87 %
16.01.2023 14:54 5,1 C 3,9 C 0,6 C 92 % 978,4 hPa 0,0 l/m 0 min 2 min 27 W/m 25,7 km/h (4 Bft) 95,74 %
16.01.2023 14:56 5,1 C 3,9 C 0,6 C 92 % 978,4 hPa 0,0 l/m 0 min 2 min 24 W/m 22,5 km/h (4 Bft) 93,62 %
16.01.2023 14:58 5,1 C 3,9 C 0,6 C 92 % 978,4 hPa 0,0 l/m 0 min 2 min 21 W/m 16,1 km/h (3 Bft) 97,83 %
16.01.2023 15:00 5,1 C 3,9 C 0,6 C 92 % 978,3 hPa 0,2 l/m 0 min 2 min 19 W/m 25,7 km/h (4 Bft) 97,87 %
16.01.2023 15:02 5,1 C 3,9 C 0,6 C 92 % 978,3 hPa 0,0 l/m 0 min 2 min 21 W/m 25,7 km/h (4 Bft) 95,74 %
16.01.2023 15:04 5,1 C 3,9 C 0,6 C 92 % 978,3 hPa 0,0 l/m 0 min 2 min 23 W/m 16,1 km/h (3 Bft) 93,62 %
16.01.2023 15:06 5,1 C 3,9 C 0,6 C 92 % 978,2 hPa 0,2 l/m 0 min 2 min 26 W/m 22,5 km/h (4 Bft) 95,83 %
16.01.2023 15:08 5,1 C 3,9 C 0,6 C 92 % 978,2 hPa 0,0 l/m 0 min 2 min 26 W/m 19,3 km/h (3 Bft) 95,74 %
16.01.2023 15:10 5,1 C 3,9 C 1,1 C 92 % 978,2 hPa 0,0 l/m 0 min 2 min 26 W/m 16,1 km/h (3 Bft) 95,74 %
16.01.2023 15:12 5,1 C 3,9 C 1,1 C 92 % 978,2 hPa 0,2 l/m 0 min 2 min 26 W/m 25,7 km/h (4 Bft) 95,65 %
16.01.2023 15:14 5,1 C 3,9 C 1,1 C 93 % 978,1 hPa 0,0 l/m 0 min 2 min 25 W/m 29,0 km/h (5 Bft) 95,74 %
16.01.2023 15:16 5,1 C 3,9 C 0,6 C 93 % 978,1 hPa 0,0 l/m 0 min 2 min 25 W/m 22,5 km/h (4 Bft) 95,74 %
16.01.2023 15:18 5,0 C 3,9 C 1,1 C 93 % 978,1 hPa 0,2 l/m 0 min 2 min 22 W/m 32,2 km/h (5 Bft) 91,49 %
16.01.2023 15:20 5,0 C 3,9 C 0,6 C 93 % 978,0 hPa 0,0 l/m 0 min 2 min 19 W/m 16,1 km/h (3 Bft) 93,62 %
16.01.2023 15:22 5,0 C 3,9 C 1,1 C 93 % 978,0 hPa 0,0 l/m 0 min 2 min 19 W/m 25,7 km/h (4 Bft) 91,49 %
16.01.2023 15:24 5,0 C 3,9 C 1,1 C 93 % 978,0 hPa 0,0 l/m 0 min 2 min 20 W/m 25,7 km/h (4 Bft) 93,62 %
16.01.2023 15:26 5,0 C 3,9 C 0,6 C 93 % 977,9 hPa 0,0 l/m 0 min 2 min 19 W/m 32,2 km/h (5 Bft) 93,48 %
16.01.2023 15:28 4,9 C 3,9 C 0,6 C 93 % 978,0 hPa 0,0 l/m 0 min 2 min 19 W/m 32,2 km/h (5 Bft) 91,49 %
16.01.2023 15:30 4,9 C 3,9 C 0,6 C 93 % 977,9 hPa 0,0 l/m 0 min 0 min 19 W/m 25,7 km/h (4 Bft) 93,62 %
16.01.2023 15:32 4,9 C 3,9 C 1,1 C 93 % 977,9 hPa 0,0 l/m 0 min 2 min 21 W/m 19,3 km/h (3 Bft) 97,87 %
16.01.2023 15:34 4,9 C 3,9 C 1,1 C 93 % 977,9 hPa 0,0 l/m 0 min 0 min 23 W/m 22,5 km/h (4 Bft) 95,74 %
16.01.2023 15:36 4,9 C 3,9 C 1,1 C 93 % 977,9 hPa 0,0 l/m 0 min 2 min 23 W/m 22,5 km/h (4 Bft) 95,74 %
16.01.2023 15:38 4,9 C 3,9 C 1,1 C 93 % 977,9 hPa 0,0 l/m 0 min 2 min 23 W/m 25,7 km/h (4 Bft) 95,65 %
16.01.2023 15:40 4,9 C 3,9 C 1,1 C 93 % 977,8 hPa 0,0 l/m 0 min 2 min 21 W/m 22,5 km/h (4 Bft) 93,62 %
16.01.2023 15:42 4,9 C 3,9 C 1,1 C 94 % 977,9 hPa 0,2 l/m 0 min 2 min 22 W/m 25,7 km/h (4 Bft) 95,74 %
16.01.2023 15:44 4,9 C 3,9 C 1,1 C 94 % 977,8 hPa 0,0 l/m 0 min 2 min 19 W/m 22,5 km/h (4 Bft) 95,74 %
16.01.2023 15:46 4,9 C 3,9 C 1,1 C 94 % 977,9 hPa 0,0 l/m 0 min 2 min 18 W/m 19,3 km/h (3 Bft) 93,62 %
16.01.2023 15:48 4,9 C 3,9 C 1,1 C 94 % 977,8 hPa 0,0 l/m 0 min 2 min 17 W/m 29,0 km/h (5 Bft) 95,74 %
16.01.2023 15:50 4,9 C 3,9 C 1,1 C 94 % 977,8 hPa 0,0 l/m 0 min 2 min 16 W/m 25,7 km/h (4 Bft) 93,62 %
16.01.2023 15:52 4,9 C 3,9 C 1,1 C 94 % 977,8 hPa 0,0 l/m 0 min 2 min 16 W/m 16,1 km/h (3 Bft) 93,48 %
16.01.2023 15:54 4,9 C 3,9 C 1,1 C 94 % 977,8 hPa 0,2 l/m 0 min 2 min 14 W/m 19,3 km/h (3 Bft) 91,49 %
16.01.2023 15:56 4,9 C 3,9 C 1,1 C 94 % 977,8 hPa 0,0 l/m 0 min 2 min 14 W/m 22,5 km/h (4 Bft) 95,74 %
16.01.2023 15:58 4,9 C 3,9 C 1,1 C 94 % 977,8 hPa 0,0 l/m 0 min 2 min 12 W/m 22,5 km/h (4 Bft) 97,87 %
16.01.2023 16:00 4,9 C 3,9 C 1,1 C 94 % 977,9 hPa 0,0 l/m 0 min 2 min 12 W/m 22,5 km/h (4 Bft) 97,87 %
16.01.2023 16:02 4,9 C 3,9 C 1,1 C 94 % 977,8 hPa 0,0 l/m 0 min 2 min 12 W/m 19,3 km/h (3 Bft) 56,52 %
16.01.2023 16:04 4,8 C 3,9 C 1,1 C 94 % 977,8 hPa 0,0 l/m 0 min 2 min 14 W/m 22,5 km/h (4 Bft) 95,74 %
16.01.2023 16:06 4,9 C 3,9 C 1,1 C 94 % 977,8 hPa 0,0 l/m 0 min 2 min 14 W/m 22,5 km/h (4 Bft) 100,00 %
16.01.2023 16:08 4,8 C 3,9 C 1,1 C 94 % 977,8 hPa 0,0 l/m 0 min 2 min 16 W/m 16,1 km/h (3 Bft) 100,00 %
16.01.2023 16:10 4,8 C 3,9 C 1,1 C 94 % 977,8 hPa 0,2 l/m 0 min 2 min 14 W/m 12,9 km/h (3 Bft) 100,00 %
16.01.2023 16:12 4,8 C 3,9 C 1,1 C 94 % 977,8 hPa 0,0 l/m 0 min 2 min 12 W/m 22,5 km/h (4 Bft) 100,00 %
16.01.2023 16:14 4,8 C 3,9 C 1,1 C 94 % 977,7 hPa 0,0 l/m 0 min 2 min 11 W/m 12,9 km/h (3 Bft) 97,87 %
16.01.2023 16:16 4,8 C 3,9 C 1,1 C 94 % 977,7 hPa 0,0 l/m 0 min 2 min 11 W/m 12,9 km/h (3 Bft) 100,00 %
16.01.2023 16:18 4,8 C 3,9 C 1,1 C 94 % 977,6 hPa 0,2 l/m 0 min 2 min 11 W/m 19,3 km/h (3 Bft) 100,00 %
16.01.2023 16:20 4,8 C 3,9 C 1,1 C 94 % 977,6 hPa 0,0 l/m 0 min 2 min 12 W/m 19,3 km/h (3 Bft) 97,87 %
16.01.2023 16:22 4,8 C 3,9 C 1,1 C 94 % 977,6 hPa 0,0 l/m 0 min 2 min 11 W/m 16,1 km/h (3 Bft) 100,00 %
16.01.2023 16:24 4,8 C 3,9 C 1,1 C 94 % 977,6 hPa 0,0 l/m 0 min 2 min 9 W/m 12,9 km/h (3 Bft) 97,87 %
16.01.2023 16:26 4,8 C 3,9 C 1,1 C 94 % 977,5 hPa 0,0 l/m 0 min 0 min 9 W/m 12,9 km/h (3 Bft) 97,87 %
16.01.2023 16:28 4,8 C 3,9 C 1,1 C 94 % 977,5 hPa 0,0 l/m 0 min 0 min 9 W/m 12,9 km/h (3 Bft) 100,00 %
16.01.2023 16:30 4,8 C 3,9 C 1,1 C 95 % 977,6 hPa 0,2 l/m 0 min 2 min 9 W/m 9,7 km/h (2 Bft) 95,74 %
16.01.2023 16:32 4,8 C 3,9 C 1,1 C 95 % 977,6 hPa 0,0 l/m 0 min 2 min 9 W/m 12,9 km/h (3 Bft) 97,87 %
16.01.2023 16:34 4,8 C 3,9 C 1,1 C 95 % 977,6 hPa 0,0 l/m 0 min 2 min 8 W/m 19,3 km/h (3 Bft) 97,83 %
16.01.2023 16:36 4,8 C 3,9 C 1,1 C 95 % 977,6 hPa 0,0 l/m 0 min 2 min 9 W/m 12,9 km/h (3 Bft) 97,87 %
16.01.2023 16:38 4,8 C 3,9 C 1,1 C 95 % 977,6 hPa 0,2 l/m 0 min 2 min 9 W/m 16,1 km/h (3 Bft) 97,87 %
16.01.2023 16:40 4,8 C 3,9 C 1,1 C 95 % 977,5 hPa 0,0 l/m 0 min 2 min 8 W/m 16,1 km/h (3 Bft) 100,00 %
16.01.2023 16:42 4,8 C 3,9 C 1,1 C 95 % 977,6 hPa 0,0 l/m 0 min 2 min 8 W/m 12,9 km/h (3 Bft) 100,00 %
16.01.2023 16:44 4,8 C 3,9 C 1,1 C 95 % 977,6 hPa 0,0 l/m 0 min 2 min 7 W/m 16,1 km/h (3 Bft) 100,00 %
16.01.2023 16:46 4,8 C 3,9 C 1,1 C 95 % 977,5 hPa 0,0 l/m 0 min 2 min 6 W/m 16,1 km/h (3 Bft) 100,00 %
16.01.2023 16:48 4,8 C 3,9 C 1,1 C 95 % 977,5 hPa 0,0 l/m 0 min 2 min 5 W/m 12,9 km/h (3 Bft) 100,00 %
16.01.2023 16:50 4,8 C 3,9 C 1,1 C 95 % 977,4 hPa 0,2 l/m 0 min 2 min 4 W/m 16,1 km/h (3 Bft) 93,62 %
16.01.2023 16:52 4,8 C 3,9 C 1,1 C 95 % 977,5 hPa 0,0 l/m 0 min 2 min 0 W/m 12,9 km/h (3 Bft) 100,00 %
16.01.2023 16:54 4,8 C 3,9 C 1,1 C 95 % 977,4 hPa 0,0 l/m 0 min 0 min 0 W/m 16,1 km/h (3 Bft) 100,00 %
16.01.2023 16:56 4,8 C 3,9 C 1,1 C 95 % 977,4 hPa 0,0 l/m 0 min 0 min 0 W/m 12,9 km/h (3 Bft) 98,00 %
16.01.2023 16:58 4,8 C 3,9 C 1,1 C 95 % 977,4 hPa 0,0 l/m 0 min 0 min 0 W/m 16,1 km/h (3 Bft) 100,00 %
16.01.2023 17:00 4,8 C 3,9 C 1,1 C 95 % 977,4 hPa 0,0 l/m 0 min 0 min 0 W/m 19,3 km/h (3 Bft) 97,83 %
16.01.2023 17:02 4,8 C 3,9 C 1,1 C 95 % 977,4 hPa 0,0 l/m 0 min 0 min 0 W/m 19,3 km/h (3 Bft) 97,87 %
16.01.2023 17:04 4,8 C 3,9 C 1,1 C 95 % 977,4 hPa 0,0 l/m 0 min 0 min 0 W/m 16,1 km/h (3 Bft) 76,60 %
16.01.2023 17:06 4,8 C 3,9 C 1,1 C 95 % 977,4 hPa 0,0 l/m 0 min 0 min 0 W/m 12,9 km/h (3 Bft) 95,74 %
16.01.2023 17:08 4,8 C 3,9 C 1,1 C 95 % 977,4 hPa 0,0 l/m 0 min 2 min 0 W/m 12,9 km/h (3 Bft) 95,74 %
16.01.2023 17:10 4,8 C 3,9 C 1,1 C 95 % 977,4 hPa 0,0 l/m 0 min 2 min 0 W/m 19,3 km/h (3 Bft) 97,87 %
16.01.2023 17:12 4,8 C 3,9 C 1,1 C 95 % 977,4 hPa 0,0 l/m 0 min 2 min 0 W/m 16,1 km/h (3 Bft) 95,74 %
16.01.2023 17:14 4,7 C 3,9 C 1,1 C 95 % 977,4 hPa 0,0 l/m 0 min 0 min 0 W/m 16,1 km/h (3 Bft) 93,62 %
16.01.2023 17:16 4,8 C 3,9 C 1,1 C 95 % 977,4 hPa 0,2 l/m 0 min 0 min 0 W/m 6,4 km/h (2 Bft) 95,65 %
16.01.2023 17:18 4,8 C 3,9 C 1,1 C 95 % 977,4 hPa 0,0 l/m 0 min 0 min 0 W/m 12,9 km/h (3 Bft) 95,74 %
16.01.2023 17:20 4,8 C 3,9 C 1,1 C 95 % 977,4 hPa 0,0 l/m 0 min 0 min 0 W/m 12,9 km/h (3 Bft) 95,74 %
16.01.2023 17:22 4,8 C 3,9 C 1,1 C 96 % 977,4 hPa 0,0 l/m 0 min 0 min 0 W/m 6,4 km/h (2 Bft) 95,74 %
16.01.2023 17:24 4,8 C 3,9 C 1,1 C 96 % 977,4 hPa 0,0 l/m 0 min 2 min 0 W/m 3,2 km/h (1 Bft) 95,74 %
16.01.2023 17:26 4,8 C 3,9 C 1,1 C 96 % 977,4 hPa 0,0 l/m 0 min 2 min 0 W/m 6,4 km/h (2 Bft) 95,74 %
16.01.2023 17:28 4,8 C 3,9 C 1,1 C 96 % 977,4 hPa 0,0 l/m 0 min 2 min 0 W/m 6,4 km/h (2 Bft) 93,48 %
16.01.2023 17:30 4,8 C 3,9 C 1,1 C 96 % 977,5 hPa 0,0 l/m 0 min 2 min 0 W/m 12,9 km/h (3 Bft) 87,23 %
16.01.2023 17:32 4,8 C 3,9 C 1,1 C 96 % 977,4 hPa 0,0 l/m 0 min 0 min 0 W/m 6,4 km/h (2 Bft) 63,83 %
16.01.2023 17:34 4,8 C 3,9 C 1,1 C 96 % 977,4 hPa 0,0 l/m 0 min 0 min 0 W/m 3,2 km/h (1 Bft) 76,60 %
16.01.2023 17:36 4,8 C 3,9 C 1,1 C 96 % 977,4 hPa 0,0 l/m 0 min 2 min 0 W/m 9,7 km/h (2 Bft) 91,49 %
16.01.2023 17:38 4,8 C 3,9 C 1,1 C 96 % 977,4 hPa 0,0 l/m 0 min 2 min 0 W/m 6,4 km/h (2 Bft) 93,62 %
16.01.2023 17:40 4,8 C 3,9 C 1,1 C 96 % 977,4 hPa 0,0 l/m 0 min 2 min 0 W/m 6,4 km/h (2 Bft) 95,65 %
16.01.2023 17:42 4,8 C 3,9 C 1,1 C 96 % 977,4 hPa 0,2 l/m 0 min 2 min 0 W/m 3,2 km/h (1 Bft) 95,74 %
16.01.2023 17:44 4,8 C 3,9 C 1,1 C 96 % 977,5 hPa 0,0 l/m 0 min 2 min 0 W/m 3,2 km/h (1 Bft) 93,62 %
16.01.2023 17:46 4,8 C 3,9 C 1,1 C 96 % 977,5 hPa 0,0 l/m 0 min 2 min 0 W/m 3,2 km/h (1 Bft) 95,74 %
16.01.2023 17:48 4,8 C 3,9 C 1,1 C 96 % 977,5 hPa 0,0 l/m 0 min 0 min 0 W/m 9,7 km/h (2 Bft) 97,87 %
16.01.2023 17:50 4,8 C 3,9 C 1,1 C 96 % 977,5 hPa 0,0 l/m 0 min 0 min 0 W/m 9,7 km/h (2 Bft) 95,74 %
16.01.2023 17:52 4,8 C 3,9 C 1,1 C 96 % 977,4 hPa 0,0 l/m 0 min 2 min 0 W/m 9,7 km/h (2 Bft) 100,00 %
16.01.2023 17:54 4,8 C 3,9 C 1,1 C 96 % 977,5 hPa 0,0 l/m 0 min 0 min 0 W/m 16,1 km/h (3 Bft) 100,00 %
16.01.2023 17:56 4,8 C 3,9 C 1,1 C 96 % 977,5 hPa 0,0 l/m 0 min 0 min 0 W/m 16,1 km/h (3 Bft) 100,00 %
16.01.2023 17:58 4,8 C 3,9 C 1,1 C 96 % 977,5 hPa 0,0 l/m 0 min 0 min 0 W/m 6,4 km/h (2 Bft) 100,00 %
16.01.2023 18:00 4,8 C 3,9 C 1,1 C 96 % 977,4 hPa 0,0 l/m 0 min 0 min 0 W/m 3,2 km/h (1 Bft) 100,00 %
16.01.2023 18:02 4,8 C 3,9 C 1,1 C 96 % 977,5 hPa 0,0 l/m 0 min 0 min 0 W/m 6,4 km/h (2 Bft) 93,62 %
16.01.2023 18:04 4,8 C 3,9 C 1,1 C 96 % 977,5 hPa 0,2 l/m 0 min 0 min 0 W/m 12,9 km/h (3 Bft) 97,87 %
16.01.2023 18:07 4,7 C 3,9 C 1,1 C 96 % 977,5 hPa 0,0 l/m 0 min 0 min 0 W/m 12,9 km/h (3 Bft) 100,00 %
16.01.2023 18:08 4,8 C 3,9 C 1,1 C 96 % 977,5 hPa 0,0 l/m 0 min 0 min 0 W/m 6,4 km/h (2 Bft) 100,00 %
16.01.2023 18:10 4,7 C 3,9 C 1,1 C 96 % 977,5 hPa 0,0 l/m 0 min 0 min 0 W/m 6,4 km/h (2 Bft) 100,00 %
16.01.2023 18:12 4,7 C 3,9 C 1,1 C 96 % 977,5 hPa 0,0 l/m 0 min 0 min 0 W/m 9,7 km/h (2 Bft) 91,49 %
16.01.2023 18:14 4,7 C 3,9 C 1,1 C 96 % 977,6 hPa 0,0 l/m 0 min 0 min 0 W/m 3,2 km/h (1 Bft) 97,83 %
16.01.2023 18:16 4,7 C 3,9 C 1,1 C 96 % 977,5 hPa 0,0 l/m 0 min 2 min 0 W/m 12,9 km/h (3 Bft) 96,30 %
16.01.2023 18:18 4,7 C 3,9 C 1,1 C 96 % 977,5 hPa 0,0 l/m 0 min 0 min 0 W/m 9,7 km/h (2 Bft) 98,00 %
16.01.2023 18:20 4,7 C 3,9 C 1,1 C 96 % 977,5 hPa 0,0 l/m 0 min 2 min 0 W/m 6,4 km/h (2 Bft) 97,87 %
16.01.2023 18:22 4,7 C 3,9 C 1,1 C 96 % 977,6 hPa 0,0 l/m 0 min 2 min 0 W/m 9,7 km/h (2 Bft) 93,48 %
16.01.2023 18:24 4,7 C 3,9 C 1,1 C 96 % 977,5 hPa 0,0 l/m 0 min 2 min 0 W/m 9,7 km/h (2 Bft) 97,87 %
16.01.2023 18:26 4,7 C 3,9 C 1,1 C 96 % 977,5 hPa 0,0 l/m 0 min 0 min 0 W/m 9,7 km/h (2 Bft) 97,87 %
16.01.2023 18:28 4,7 C 3,9 C 1,1 C 96 % 977,6 hPa 0,0 l/m 0 min 0 min 0 W/m 9,7 km/h (2 Bft) 97,87 %
16.01.2023 18:30 4,7 C 3,9 C 1,1 C 96 % 977,6 hPa 0,0 l/m 0 min 0 min 0 W/m 16,1 km/h (3 Bft) 95,74 %
16.01.2023 18:32 4,7 C 3,9 C 1,1 C 96 % 977,6 hPa 0,0 l/m 0 min 0 min 0 W/m 12,9 km/h (3 Bft) 97,87 %
16.01.2023 18:34 4,7 C 3,9 C 1,1 C 96 % 977,5 hPa 0,0 l/m 0 min 0 min 0 W/m 9,7 km/h (2 Bft) 97,87 %
16.01.2023 18:36 4,7 C 3,9 C 1,1 C 96 % 977,5 hPa 0,0 l/m 0 min 0 min 0 W/m 6,4 km/h (2 Bft) 95,65 %
16.01.2023 18:38 4,7 C 3,9 C 1,1 C 96 % 977,5 hPa 0,0 l/m 0 min 0 min 0 W/m 6,4 km/h (2 Bft) 97,87 %
16.01.2023 18:40 4,6 C 3,9 C 1,1 C 96 % 977,6 hPa 0,0 l/m 0 min 0 min 0 W/m 9,7 km/h (2 Bft) 97,87 %
16.01.2023 18:42 4,6 C 3,9 C 1,1 C 96 % 977,6 hPa 0,0 l/m 0 min 0 min 0 W/m 6,4 km/h (2 Bft) 97,87 %
16.01.2023 18:44 4,6 C 3,9 C 1,1 C 96 % 977,6 hPa 0,0 l/m 0 min 0 min 0 W/m 6,4 km/h (2 Bft) 95,74 %
16.01.2023 18:46 4,6 C 3,9 C 1,1 C 96 % 977,6 hPa 0,0 l/m 0 min 0 min 0 W/m 3,2 km/h (1 Bft) 97,87 %
16.01.2023 18:48 4,6 C 3,9 C 1,1 C 96 % 977,6 hPa 0,0 l/m 0 min 0 min 0 W/m 3,2 km/h (1 Bft) 95,74 %
16.01.2023 18:50 4,6 C 3,3 C 1,1 C 96 % 977,6 hPa 0,0 l/m 0 min 0 min 0 W/m 3,2 km/h (1 Bft) 97,87 %
16.01.2023 18:52 4,5 C 3,3 C 1,1 C 96 % 977,6 hPa 0,0 l/m 0 min 0 min 0 W/m 6,4 km/h (2 Bft) 95,65 %
16.01.2023 18:54 4,5 C 3,3 C 1,1 C 96 % 977,7 hPa 0,0 l/m 0 min 0 min 0 W/m 3,2 km/h (1 Bft) 95,74 %
16.01.2023 18:56 4,5 C 3,3 C 1,1 C 96 % 977,7 hPa 0,0 l/m 0 min 0 min 0 W/m 9,7 km/h (2 Bft) 97,87 %
16.01.2023 18:58 4,4 C 3,9 C 1,1 C 96 % 977,6 hPa 0,0 l/m 0 min 0 min 0 W/m 6,4 km/h (2 Bft) 97,87 %
16.01.2023 19:00 4,4 C 3,9 C 1,1 C 96 % 977,6 hPa 0,0 l/m 0 min 0 min 0 W/m 6,4 km/h (2 Bft) 97,87 %
16.01.2023 19:02 4,4 C 3,9 C 1,1 C 96 % 977,6 hPa 0,0 l/m 0 min 0 min 0 W/m 6,4 km/h (2 Bft) 97,87 %
16.01.2023 19:04 4,4 C 3,9 C 1,1 C 96 % 977,6 hPa 0,0 l/m 0 min 0 min 0 W/m 6,4 km/h (2 Bft) 93,62 %
16.01.2023 19:06 4,4 C 3,9 C 1,1 C 96 % 977,6 hPa 0,0 l/m 0 min 0 min 0 W/m 12,9 km/h (3 Bft) 97,83 %
16.01.2023 19:08 4,5 C 3,9 C 1,1 C 96 % 977,7 hPa 0,0 l/m 0 min 0 min 0 W/m 6,4 km/h (2 Bft) 95,74 %
16.01.2023 19:10 4,5 C 3,9 C 1,1 C 96 % 977,8 hPa 0,0 l/m 0 min 0 min 0 W/m 3,2 km/h (1 Bft) 97,87 %
16.01.2023 19:12 4,5 C 3,9 C 1,1 C 97 % 977,7 hPa 0,0 l/m 0 min 0 min 0 W/m 3,2 km/h (1 Bft) 95,74 %
16.01.2023 19:14 4,5 C 3,9 C 1,1 C 97 % 977,7 hPa 0,0 l/m 0 min 0 min 0 W/m 3,2 km/h (1 Bft) 93,62 %
16.01.2023 19:16 4,5 C 3,9 C 1,1 C 97 % 977,7 hPa 0,0 l/m 0 min 0 min 0 W/m 6,4 km/h (2 Bft) 97,87 %
16.01.2023 19:18 4,5 C 3,9 C 1,1 C 97 % 977,8 hPa 0,0 l/m 0 min 0 min 0 W/m 3,2 km/h (1 Bft) 97,87 %
16.01.2023 19:20 4,5 C 3,9 C 1,1 C 97 % 977,8 hPa 0,0 l/m 0 min 0 min 0 W/m 3,2 km/h (1 Bft) 95,74 %
16.01.2023 19:22 4,5 C 3,9 C 1,1 C 97 % 977,9 hPa 0,0 l/m 0 min 0 min 0 W/m 6,4 km/h (2 Bft) 95,65 %
16.01.2023 19:24 4,6 C 3,9 C 1,1 C 97 % 977,8 hPa 0,0 l/m 0 min 0 min 0 W/m 6,4 km/h (2 Bft) 97,87 %
16.01.2023 19:26 4,6 C 3,9 C 1,1 C 97 % 977,9 hPa 0,0 l/m 0 min 0 min 0 W/m 3,2 km/h (1 Bft) 95,74 %
16.01.2023 19:28 4,6 C 3,9 C 1,1 C 97 % 977,9 hPa 0,0 l/m 0 min 0 min 0 W/m 12,9 km/h (3 Bft) 93,62 %
16.01.2023 19:30 4,6 C 3,9 C 1,1 C 97 % 977,9 hPa 0,0 l/m 0 min 0 min 0 W/m 6,4 km/h (2 Bft) 97,87 %
16.01.2023 19:32 4,6 C 3,9 C 1,1 C 97 % 977,9 hPa 0,0 l/m 0 min 0 min 0 W/m 6,4 km/h (2 Bft) 97,87 %
16.01.2023 19:34 4,6 C 3,9 C 1,1 C 97 % 978,0 hPa 0,0 l/m 0 min 0 min 0 W/m 6,4 km/h (2 Bft) 97,83 %
16.01.2023 19:36 4,6 C 3,9 C 1,1 C 97 % 978,0 hPa 0,0 l/m 0 min 0 min 0 W/m 6,4 km/h (2 Bft) 97,87 %
16.01.2023 19:38 4,6 C 3,9 C 1,1 C 97 % 978,0 hPa 0,0 l/m 0 min 0 min 0 W/m 16,1 km/h (3 Bft) 97,87 %
16.01.2023 19:40 4,6 C 3,9 C 1,1 C 97 % 978,1 hPa 0,0 l/m 0 min 0 min 0 W/m 6,4 km/h (2 Bft) 97,87 %
16.01.2023 19:42 4,6 C 3,9 C 1,1 C 97 % 978,1 hPa 0,0 l/m 0 min 0 min 0 W/m 6,4 km/h (2 Bft) 97,87 %
16.01.2023 19:44 4,6 C 3,9 C 1,1 C 97 % 978,1 hPa 0,0 l/m 0 min 0 min 0 W/m 16,1 km/h (3 Bft) 95,74 %
16.01.2023 19:46 4,6 C 3,9 C 1,1 C 97 % 978,1 hPa 0,0 l/m 0 min 0 min 0 W/m 12,9 km/h (3 Bft) 97,87 %
16.01.2023 19:48 4,6 C 3,9 C 1,1 C 97 % 978,2 hPa 0,0 l/m 0 min 0 min 0 W/m 12,9 km/h (3 Bft) 97,83 %
16.01.2023 19:50 4,6 C 3,9 C 1,1 C 97 % 978,2 hPa 0,0 l/m 0 min 0 min 0 W/m 9,7 km/h (2 Bft) 97,87 %
16.01.2023 19:52 4,6 C 3,9 C 1,1 C 97 % 978,2 hPa 0,0 l/m 0 min 0 min 0 W/m 16,1 km/h (3 Bft) 95,74 %
16.01.2023 19:54 4,6 C 3,9 C 1,1 C 97 % 978,2 hPa 0,0 l/m 0 min 0 min 0 W/m 6,4 km/h (2 Bft) 97,87 %
16.01.2023 19:56 4,6 C 3,9 C 1,1 C 97 % 978,3 hPa 0,0 l/m 0 min 0 min 0 W/m 12,9 km/h (3 Bft) 97,87 %
16.01.2023 19:58 4,6 C 3,9 C 1,1 C 97 % 978,3 hPa 0,0 l/m 0 min 0 min 0 W/m 9,7 km/h (2 Bft) 95,74 %
16.01.2023 20:00 4,6 C 3,9 C 1,1 C 97 % 978,3 hPa 0,0 l/m 0 min 0 min 0 W/m 12,9 km/h (3 Bft) 95,74 %
16.01.2023 20:02 4,6 C 3,9 C 1,1 C 97 % 978,4 hPa 0,0 l/m 0 min 0 min 0 W/m 12,9 km/h (3 Bft) 97,83 %
16.01.2023 20:04 4,6 C 3,9 C 1,1 C 97 % 978,4 hPa 0,0 l/m 0 min 0 min 0 W/m 6,4 km/h (2 Bft) 95,74 %
16.01.2023 20:06 4,6 C 3,9 C 1,1 C 97 % 978,5 hPa 0,0 l/m 0 min 0 min 0 W/m 12,9 km/h (3 Bft) 97,87 %
16.01.2023 20:08 4,6 C 3,9 C 1,1 C 97 % 978,5 hPa 0,0 l/m 0 min 0 min 0 W/m 16,1 km/h (3 Bft) 93,62 %
16.01.2023 20:10 4,6 C 3,9 C 1,1 C 97 % 978,5 hPa 0,0 l/m 0 min 0 min 0 W/m 16,1 km/h (3 Bft) 97,87 %
16.01.2023 20:12 4,6 C 3,9 C 1,1 C 97 % 978,5 hPa 0,0 l/m 0 min 0 min 0 W/m 16,1 km/h (3 Bft) 97,87 %
16.01.2023 20:14 4,6 C 3,9 C 1,1 C 97 % 978,5 hPa 0,0 l/m 0 min 0 min 0 W/m 12,9 km/h (3 Bft) 100,00 %
16.01.2023 20:16 4,6 C 3,9 C 1,1 C 97 % 978,5 hPa 0,0 l/m 0 min 0 min 0 W/m 16,1 km/h (3 Bft) 100,00 %
16.01.2023 20:18 4,6 C 3,9 C 1,1 C 97 % 978,5 hPa 0,0 l/m 0 min 0 min 0 W/m 12,9 km/h (3 Bft) 100,00 %
16.01.2023 20:20 4,6 C 3,9 C 1,1 C 97 % 978,6 hPa 0,0 l/m 0 min 2 min 0 W/m 16,1 km/h (3 Bft) 100,00 %
16.01.2023 20:22 4,6 C 3,9 C 1,1 C 97 % 978,6 hPa 0,0 l/m 0 min 2 min 0 W/m 16,1 km/h (3 Bft) 100,00 %
16.01.2023 20:24 4,6 C 3,9 C 1,1 C 97 % 978,6 hPa 0,0 l/m 0 min 2 min 0 W/m 12,9 km/h (3 Bft) 100,00 %
16.01.2023 20:26 4,5 C 3,9 C 1,1 C 97 % 978,7 hPa 0,0 l/m 0 min 2 min 0 W/m 19,3 km/h (3 Bft) 100,00 %
16.01.2023 20:28 4,5 C 3,9 C 1,1 C 96 % 978,7 hPa 0,0 l/m 0 min 2 min 0 W/m 16,1 km/h (3 Bft) 100,00 %
16.01.2023 20:30 4,4 C 3,9 C 1,1 C 97 % 978,7 hPa 0,0 l/m 0 min 2 min 0 W/m 16,1 km/h (3 Bft) 95,74 %
16.01.2023 20:32 4,4 C 3,9 C 1,1 C 96 % 978,8 hPa 0,0 l/m 0 min 2 min 0 W/m 16,1 km/h (3 Bft) 97,83 %
16.01.2023 20:34 4,4 C 3,9 C 1,1 C 96 % 978,8 hPa 0,0 l/m 0 min 2 min 0 W/m 16,1 km/h (3 Bft) 97,87 %
16.01.2023 20:36 4,4 C 3,9 C 1,1 C 96 % 978,8 hPa 0,0 l/m 0 min 2 min 0 W/m 22,5 km/h (4 Bft) 97,87 %
16.01.2023 20:38 4,4 C 3,9 C 1,1 C 96 % 978,9 hPa 0,0 l/m 0 min 2 min 0 W/m 16,1 km/h (3 Bft) 97,87 %
16.01.2023 20:40 4,4 C 3,9 C 1,1 C 96 % 978,9 hPa 0,0 l/m 0 min 2 min 0 W/m 19,3 km/h (3 Bft) 97,87 %
16.01.2023 20:42 4,4 C 3,9 C 1,1 C 96 % 979,0 hPa 0,0 l/m 0 min 2 min 0 W/m 12,9 km/h (3 Bft) 95,74 %
16.01.2023 20:44 4,4 C 3,9 C 1,1 C 96 % 978,9 hPa 0,0 l/m 0 min 2 min 0 W/m 16,1 km/h (3 Bft) 100,00 %
16.01.2023 20:46 4,4 C 3,9 C 1,1 C 96 % 979,2 hPa 0,2 l/m 0 min 2 min 0 W/m 16,1 km/h (3 Bft) 97,87 %
16.01.2023 20:48 4,4 C 3,9 C 1,1 C 96 % 979,1 hPa 0,0 l/m 0 min 2 min 0 W/m 19,3 km/h (3 Bft) 97,83 %
16.01.2023 20:50 4,3 C 3,9 C 1,1 C 96 % 979,1 hPa 0,0 l/m 0 min 2 min 0 W/m 16,1 km/h (3 Bft) 100,00 %
16.01.2023 20:52 4,3 C 3,9 C 1,1 C 96 % 979,3 hPa 0,0 l/m 0 min 2 min 0 W/m 22,5 km/h (4 Bft) 97,87 %
16.01.2023 20:54 4,3 C 3,9 C 1,1 C 96 % 979,2 hPa 0,0 l/m 0 min 2 min 0 W/m 16,1 km/h (3 Bft) 97,87 %
16.01.2023 20:56 4,3 C 3,9 C 1,1 C 96 % 979,2 hPa 0,0 l/m 0 min 2 min 0 W/m 12,9 km/h (3 Bft) 97,87 %
16.01.2023 20:58 4,3 C 3,9 C 1,1 C 96 % 979,3 hPa 0,0 l/m 0 min 2 min 0 W/m 19,3 km/h (3 Bft) 97,87 %
16.01.2023 21:00 4,3 C 3,9 C 0,6 C 96 % 979,3 hPa 0,0 l/m 0 min 2 min 0 W/m 22,5 km/h (4 Bft) 95,74 %
16.01.2023 21:02 4,2 C 3,3 C 0,6 C 96 % 979,3 hPa 0,0 l/m 0 min 2 min 0 W/m 19,3 km/h (3 Bft) 93,48 %
16.01.2023 21:04 4,2 C 3,3 C 0,6 C 96 % 979,4 hPa 0,0 l/m 0 min 2 min 0 W/m 29,0 km/h (5 Bft) 95,74 %
16.01.2023 21:06 4,2 C 3,3 C 0,6 C 96 % 979,5 hPa 0,0 l/m 0 min 2 min 0 W/m 19,3 km/h (3 Bft) 94,92 %
16.01.2023 21:08 4,2 C 3,3 C 0,6 C 96 % 979,5 hPa 0,0 l/m 0 min 2 min 0 W/m 19,3 km/h (3 Bft) 97,14 %
16.01.2023 21:10 4,1 C 3,3 C 0,6 C 96 % 979,5 hPa 0,0 l/m 0 min 2 min 0 W/m 22,5 km/h (4 Bft) 95,74 %
16.01.2023 21:12 4,1 C 3,3 C 0,6 C 96 % 979,5 hPa 0,0 l/m 0 min 0 min 0 W/m 19,3 km/h (3 Bft) 52,27 %
16.01.2023 21:14 4,1 C 3,3 C 0,6 C 96 % 979,6 hPa 0,0 l/m 0 min 2 min 0 W/m 25,7 km/h (4 Bft) 97,83 %
16.01.2023 21:16 4,1 C 3,3 C 0,6 C 96 % 979,6 hPa 0,0 l/m 0 min 2 min 0 W/m 32,2 km/h (5 Bft) 93,62 %
16.01.2023 21:18 4,1 C 3,3 C 0,6 C 96 % 979,7 hPa 0,0 l/m 0 min 2 min 0 W/m 19,3 km/h (3 Bft) 93,62 %
16.01.2023 21:20 4,1 C 3,3 C 0,6 C 96 % 979,7 hPa 0,0 l/m 0 min 0 min 0 W/m 19,3 km/h (3 Bft) 95,74 %
16.01.2023 21:22 4,1 C 3,3 C 0,6 C 96 % 979,7 hPa 0,0 l/m 0 min 2 min 0 W/m 19,3 km/h (3 Bft) 95,74 %
16.01.2023 21:24 4,1 C 3,3 C 0,6 C 96 % 979,8 hPa 0,0 l/m 0 min 0 min 0 W/m 16,1 km/h (3 Bft) 95,74 %
16.01.2023 21:26 4,1 C 3,3 C 0,6 C 96 % 979,9 hPa 0,0 l/m 0 min 2 min 0 W/m 19,3 km/h (3 Bft) 97,87 %
16.01.2023 21:28 4,1 C 3,3 C 0,6 C 96 % 979,9 hPa 0,0 l/m 0 min 0 min 0 W/m 19,3 km/h (3 Bft) 93,48 %
16.01.2023 21:30 4,0 C 3,3 C 0,6 C 96 % 979,9 hPa 0,0 l/m 0 min 2 min 0 W/m 25,7 km/h (4 Bft) 93,62 %
16.01.2023 21:32 4,0 C 3,3 C 0,6 C 96 % 980,0 hPa 0,0 l/m 0 min 2 min 0 W/m 12,9 km/h (3 Bft) 97,87 %
16.01.2023 21:34 4,0 C 3,3 C 0,6 C 96 % 980,0 hPa 0,0 l/m 0 min 2 min 0 W/m 12,9 km/h (3 Bft) 95,74 %
16.01.2023 21:36 4,0 C 3,3 C 0,6 C 96 % 980,0 hPa 0,0 l/m 0 min 2 min 0 W/m 19,3 km/h (3 Bft) 95,74 %
16.01.2023 21:38 4,0 C 3,3 C 0,6 C 96 % 980,0 hPa 0,2 l/m 0 min 2 min 0 W/m 22,5 km/h (4 Bft) 97,87 %
16.01.2023 21:40 4,1 C 3,3 C 0,6 C 96 % 980,0 hPa 0,0 l/m 0 min 2 min 0 W/m 12,9 km/h (3 Bft) 95,74 %
16.01.2023 21:42 4,0 C 3,3 C 0,6 C 96 % 980,2 hPa 0,0 l/m 0 min 2 min 0 W/m 22,5 km/h (4 Bft) 93,62 %
16.01.2023 21:44 4,0 C 3,3 C 0,6 C 96 % 980,1 hPa 0,0 l/m 0 min 2 min 0 W/m 25,7 km/h (4 Bft) 97,83 %
16.01.2023 21:46 4,0 C 3,3 C 0,6 C 96 % 980,1 hPa 0,0 l/m 0 min 2 min 0 W/m 38,6 km/h (5 Bft) 91,49 %
16.01.2023 21:48 4,0 C 3,3 C 0,6 C 96 % 980,3 hPa 0,0 l/m 0 min 2 min 0 W/m 29,0 km/h (5 Bft) 97,87 %
16.01.2023 21:50 4,0 C 3,3 C 0,6 C 96 % 980,3 hPa 0,0 l/m 0 min 2 min 0 W/m 25,7 km/h (4 Bft) 97,87 %
16.01.2023 21:52 4,0 C 3,3 C 0,6 C 96 % 980,4 hPa 0,0 l/m 0 min 2 min 0 W/m 19,3 km/h (3 Bft) 95,74 %
16.01.2023 21:54 4,0 C 3,3 C 0,6 C 96 % 980,4 hPa 0,0 l/m 0 min 2 min 0 W/m 22,5 km/h (4 Bft) 93,62 %
16.01.2023 21:56 4,0 C 3,3 C 0,6 C 96 % 980,4 hPa 0,0 l/m 0 min 2 min 0 W/m 29,0 km/h (5 Bft) 97,83 %
16.01.2023 21:58 4,0 C 3,3 C 0,6 C 96 % 980,5 hPa 0,0 l/m 0 min 2 min 0 W/m 25,7 km/h (4 Bft) 97,87 %
16.01.2023 22:00 4,0 C 3,3 C 0,6 C 96 % 980,6 hPa 0,0 l/m 0 min 2 min 0 W/m 19,3 km/h (3 Bft) 97,87 %
16.01.2023 22:02 4,0 C 3,3 C 0,6 C 95 % 980,7 hPa 0,0 l/m 0 min 2 min 0 W/m 19,3 km/h (3 Bft) 91,49 %
16.01.2023 22:04 4,0 C 3,3 C 0,6 C 95 % 980,6 hPa 0,0 l/m 0 min 2 min 0 W/m 22,5 km/h (4 Bft) 93,62 %
16.01.2023 22:06 4,0 C 3,3 C 0,6 C 95 % 980,8 hPa 0,0 l/m 0 min 2 min 0 W/m 12,9 km/h (3 Bft) 96,55 %
16.01.2023 22:08 4,0 C 3,3 C 0,6 C 95 % 980,7 hPa 0,0 l/m 0 min 0 min 0 W/m 19,3 km/h (3 Bft) 94,44 %
16.01.2023 22:10 4,0 C 3,3 C 0,6 C 95 % 980,8 hPa 0,0 l/m 0 min 0 min 0 W/m 12,9 km/h (3 Bft) 95,74 %
16.01.2023 22:12 4,0 C 3,3 C 0,6 C 95 % 980,7 hPa 0,0 l/m 0 min 0 min 0 W/m 19,3 km/h (3 Bft) 93,48 %
16.01.2023 22:14 3,9 C 3,3 C 0,6 C 95 % 980,8 hPa 0,0 l/m 0 min 0 min 0 W/m 22,5 km/h (4 Bft) 97,87 %
16.01.2023 22:16 3,9 C 3,3 C 0,6 C 95 % 980,8 hPa 0,0 l/m 0 min 2 min 0 W/m 19,3 km/h (3 Bft) 97,87 %
16.01.2023 22:18 3,9 C 3,3 C 0,6 C 95 % 980,9 hPa 0,0 l/m 0 min 2 min 0 W/m 16,1 km/h (3 Bft) 97,87 %
16.01.2023 22:20 3,9 C 3,3 C 0,6 C 95 % 980,9 hPa 0,0 l/m 0 min 2 min 0 W/m 12,9 km/h (3 Bft) 93,62 %
16.01.2023 22:22 3,9 C 3,3 C 0,6 C 95 % 980,9 hPa 0,0 l/m 0 min 0 min 0 W/m 22,5 km/h (4 Bft) 97,87 %
16.01.2023 22:24 3,9 C 3,3 C 0,6 C 95 % 981,0 hPa 0,0 l/m 0 min 2 min 0 W/m 19,3 km/h (3 Bft) 97,83 %
16.01.2023 22:26 3,9 C 3,3 C 0,6 C 95 % 980,9 hPa 0,0 l/m 0 min 2 min 0 W/m 16,1 km/h (3 Bft) 97,87 %
16.01.2023 22:28 3,9 C 3,3 C 0,6 C 95 % 981,0 hPa 0,0 l/m 0 min 2 min 0 W/m 19,3 km/h (3 Bft) 97,87 %
16.01.2023 22:30 3,9 C 3,3 C 0,6 C 95 % 981,0 hPa 0,0 l/m 0 min 2 min 0 W/m 25,7 km/h (4 Bft) 95,74 %
16.01.2023 22:32 3,9 C 3,3 C 0,6 C 95 % 981,1 hPa 0,0 l/m 0 min 2 min 0 W/m 19,3 km/h (3 Bft) 93,62 %
16.01.2023 22:34 3,9 C 3,3 C 0,6 C 95 % 981,1 hPa 0,0 l/m 0 min 2 min 0 W/m 19,3 km/h (3 Bft) 95,74 %
16.01.2023 22:36 3,9 C 3,3 C 0,6 C 95 % 981,2 hPa 0,0 l/m 0 min 2 min 0 W/m 19,3 km/h (3 Bft) 95,74 %
16.01.2023 22:38 3,9 C 3,3 C 0,6 C 95 % 981,2 hPa 0,0 l/m 0 min 2 min 0 W/m 25,7 km/h (4 Bft) 95,65 %
16.01.2023 22:40 3,9 C 3,3 C 0,6 C 95 % 981,2 hPa 0,0 l/m 0 min 2 min 0 W/m 12,9 km/h (3 Bft) 93,62 %
16.01.2023 22:42 3,9 C 3,3 C 0,6 C 95 % 981,3 hPa 0,0 l/m 0 min 2 min 0 W/m 12,9 km/h (3 Bft) 95,74 %
16.01.2023 22:44 3,8 C 3,3 C 0,6 C 95 % 981,4 hPa 0,0 l/m 0 min 2 min 0 W/m 16,1 km/h (3 Bft) 97,87 %
16.01.2023 22:46 3,8 C 3,3 C 0,6 C 95 % 981,5 hPa 0,0 l/m 0 min 0 min 0 W/m 16,1 km/h (3 Bft) 97,87 %
16.01.2023 22:48 3,8 C 3,3 C 0,6 C 95 % 981,4 hPa 0,0 l/m 0 min 0 min 0 W/m 16,1 km/h (3 Bft) 97,87 %
16.01.2023 22:50 3,8 C 3,3 C 0,6 C 95 % 981,7 hPa 0,0 l/m 0 min 2 min 0 W/m 38,6 km/h (5 Bft) 95,74 %
16.01.2023 22:52 3,8 C 3,3 C 0,6 C 95 % 981,5 hPa 0,0 l/m 0 min 2 min 0 W/m 19,3 km/h (3 Bft) 95,65 %
16.01.2023 22:54 3,8 C 3,3 C 0,6 C 95 % 981,5 hPa 0,0 l/m 0 min 2 min 0 W/m 12,9 km/h (3 Bft) 95,74 %
16.01.2023 22:56 3,9 C 3,3 C 0,6 C 95 % 981,5 hPa 0,0 l/m 0 min 0 min 0 W/m 19,3 km/h (3 Bft) 97,87 %
16.01.2023 22:58 3,9 C 3,3 C 0,6 C 95 % 981,5 hPa 0,0 l/m 0 min 0 min 0 W/m 16,1 km/h (3 Bft) 100,00 %
16.01.2023 23:00 3,9 C 3,3 C 0,6 C 95 % 981,6 hPa 0,0 l/m 0 min 0 min 0 W/m 16,1 km/h (3 Bft) 100,00 %
16.01.2023 23:02 3,9 C 3,3 C 0,6 C 95 % 981,7 hPa 0,0 l/m 0 min 0 min 0 W/m 22,5 km/h (4 Bft) 100,00 %
16.01.2023 23:04 3,9 C 3,3 C 0,6 C 95 % 981,6 hPa 0,0 l/m 0 min 0 min 0 W/m 35,4 km/h (5 Bft) 95,74 %
16.01.2023 23:06 3,9 C 3,3 C 0,6 C 95 % 981,7 hPa 0,0 l/m 0 min 0 min 0 W/m 19,3 km/h (3 Bft) 94,92 %
16.01.2023 23:08 3,9 C 3,3 C 0,6 C 95 % 981,7 hPa 0,0 l/m 0 min 0 min 0 W/m 16,1 km/h (3 Bft) 100,00 %
16.01.2023 23:10 3,9 C 3,3 C 0,6 C 95 % 981,9 hPa 0,0 l/m 0 min 0 min 0 W/m 22,5 km/h (4 Bft) 95,74 %
16.01.2023 23:12 3,9 C 3,3 C 0,6 C 95 % 981,7 hPa 0,0 l/m 0 min 0 min 0 W/m 19,3 km/h (3 Bft) 97,87 %
16.01.2023 23:14 3,9 C 3,3 C 0,6 C 95 % 981,7 hPa 0,0 l/m 0 min 0 min 0 W/m 12,9 km/h (3 Bft) 97,87 %
16.01.2023 23:16 3,9 C 3,3 C 0,6 C 95 % 981,8 hPa 0,0 l/m 0 min 0 min 0 W/m 16,1 km/h (3 Bft) 97,87 %
16.01.2023 23:18 3,9 C 3,3 C 0,6 C 95 % 981,8 hPa 0,0 l/m 0 min 0 min 0 W/m 22,5 km/h (4 Bft) 97,87 %
16.01.2023 23:20 3,9 C 3,3 C 0,6 C 95 % 982,0 hPa 0,0 l/m 0 min 0 min 0 W/m 16,1 km/h (3 Bft) 100,00 %
16.01.2023 23:22 3,9 C 3,3 C 0,6 C 95 % 981,8 hPa 0,0 l/m 0 min 0 min 0 W/m 16,1 km/h (3 Bft) 100,00 %
16.01.2023 23:24 3,9 C 3,3 C 0,6 C 95 % 982,0 hPa 0,0 l/m 0 min 0 min 0 W/m 19,3 km/h (3 Bft) 97,87 %
16.01.2023 23:26 3,9 C 3,3 C 0,6 C 95 % 982,2 hPa 0,0 l/m 0 min 0 min 0 W/m 19,3 km/h (3 Bft) 100,00 %
16.01.2023 23:28 3,9 C 3,3 C 0,6 C 95 % 982,1 hPa 0,0 l/m 0 min 0 min 0 W/m 19,3 km/h (3 Bft) 100,00 %
16.01.2023 23:30 3,8 C 3,3 C 0,6 C 95 % 982,1 hPa 0,0 l/m 0 min 0 min 0 W/m 19,3 km/h (3 Bft) 97,87 %
16.01.2023 23:32 3,8 C 3,3 C 0,6 C 95 % 982,1 hPa 0,0 l/m 0 min 0 min 0 W/m 22,5 km/h (4 Bft) 100,00 %
16.01.2023 23:34 3,8 C 3,3 C 0,6 C 95 % 982,1 hPa 0,0 l/m 0 min 0 min 0 W/m 16,1 km/h (3 Bft) 97,87 %
16.01.2023 23:36 3,8 C 3,3 C 0,6 C 95 % 982,2 hPa 0,0 l/m 0 min 0 min 0 W/m 16,1 km/h (3 Bft) 100,00 %
16.01.2023 23:38 3,8 C 3,3 C 0,6 C 95 % 982,3 hPa 0,0 l/m 0 min 0 min 0 W/m 19,3 km/h (3 Bft) 100,00 %
16.01.2023 23:40 3,8 C 3,3 C 0,6 C 95 % 982,2 hPa 0,0 l/m 0 min 0 min 0 W/m 16,1 km/h (3 Bft) 97,87 %
16.01.2023 23:42 3,7 C 3,3 C 0,6 C 95 % 982,3 hPa 0,0 l/m 0 min 0 min 0 W/m 19,3 km/h (3 Bft) 100,00 %
16.01.2023 23:44 3,7 C 3,3 C 0,6 C 95 % 982,3 hPa 0,0 l/m 0 min 0 min 0 W/m 19,3 km/h (3 Bft) 100,00 %
16.01.2023 23:46 3,7 C 3,3 C 0,6 C 95 % 982,3 hPa 0,0 l/m 0 min 2 min 0 W/m 22,5 km/h (4 Bft) 100,00 %
16.01.2023 23:48 3,7 C 3,3 C 0,6 C 95 % 982,4 hPa 0,0 l/m 0 min 0 min 0 W/m 16,1 km/h (3 Bft) 95,74 %
16.01.2023 23:50 3,7 C 3,3 C 0,6 C 95 % 982,4 hPa 0,0 l/m 0 min 0 min 0 W/m 16,1 km/h (3 Bft) 95,74 %
16.01.2023 23:52 3,7 C 3,3 C 0,6 C 95 % 982,4 hPa 0,0 l/m 0 min 0 min 0 W/m 19,3 km/h (3 Bft) 100,00 %
16.01.2023 23:54 3,7 C 3,3 C 0,6 C 95 % 982,4 hPa 0,0 l/m 0 min 0 min 0 W/m 25,7 km/h (4 Bft) 100,00 %
16.01.2023 23:56 3,7 C 3,3 C 0,6 C 95 % 982,4 hPa 0,0 l/m 0 min 2 min 0 W/m 16,1 km/h (3 Bft) 97,87 %
16.01.2023 23:58 3,7 C 3,3 C 0,6 C 95 % 982,5 hPa 0,0 l/m 0 min 0 min 0 W/m 16,1 km/h (3 Bft) 93,62 %
_ Min-Zeit 05:40 05:18 04:54 00:42 16:50 - - - - 17:24 02:20
Minimum _ 3,7 C 2,8 C 0,0 C 85 % 977,4 hPa - - - - 3,2 km/h (1 Bft) 40,00 %
_ Max-Zeit 00:40 00:24 12:44 19:12 00:00 00:04 12:44 00:07 12:44 09:38 01:04
Maximum _ 6,0 C 5,6 C 2,2 C 97 % 998,8 hPa 0,2 l/m 2 min 3 min 178 W/m 45,1 km/h
S-SO (6 Bft)
100,00 %
Durchschnitt _ 4,8 C 4,1 C 0,9 C 91 % 985,0 hPa #5,6 l/m #2 min. #8:30 h 43 W/m 19,9 km/h (4 Bft) 96,40 %
© 2023 W. Hausmann